Time,TemperatureF,DewpointF,PressureIn,WindDirection,WindDirectionDegrees,WindSpeedMPH,WindSpeedGustMPH,Humidity,HourlyPrecipIn,Conditions,Clouds,dailyrainin,SoftwareType,DateUTC
2013-01-08 00:00:00,50.9,10.1,17.72,SW,218,3.6,3.6,19,0.00,,CLR,0.00,VWS V14.01,2013-01-08 07:00:00,
2013-01-08 00:01:00,51.1,10.3,17.72,SW,225,4.0,4.0,19,0.00,,CLR,0.00,VWS V14.01,2013-01-08 07:01:00,
2013-01-08 00:02:00,51.1,10.3,17.72,SW,225,4.0,4.0,19,0.00,,CLR,0.00,VWS V14.01,2013-01-08 07:02:00,
2013-01-08 00:03:00,51.1,10.3,17.72,SW,225,4.0,4.0,19,0.00,,CLR,0.00,VWS V14.01,2013-01-08 07:03:00,
2013-01-08 00:04:00,51.1,10.3,17.72,WSW,247,4.9,4.9,19,0.00,,CLR,0.00,VWS V14.01,2013-01-08 07:04:00,
2013-01-08 00:05:00,51.1,10.3,17.72,WSW,240,5.8,5.8,19,0.00,,CLR,0.00,VWS V14.01,2013-01-08 07:05:00,
2013-01-08 00:06:00,51.1,10.3,17.72,WSW,245,5.4,5.8,19,0.00,,CLR,0.00,VWS V14.01,2013-01-08 07:06:00,
2013-01-08 00:07:00,51.1,10.3,17.72,WSW,245,5.4,5.4,19,0.00,,CLR,0.00,VWS V14.01,2013-01-08 07:07:00,
2013-01-08 00:08:00,51.1,10.3,17.72,WSW,245,5.4,5.4,19,0.00,,CLR,0.00,VWS V14.01,2013-01-08 07:08:00,
2013-01-08 00:09:00,51.1,10.3,17.72,SW,230,5.4,5.4,19,0.00,,CLR,0.00,VWS V14.01,2013-01-08 07:09:00,
2013-01-08 00:10:00,51.1,10.3,17.72,SW,230,5.4,5.4,19,0.00,,CLR,0.00,VWS V14.01,2013-01-08 07:10:00,
2013-01-08 00:11:00,51.1,10.3,17.72,West,260,5.4,5.4,19,0.00,,CLR,0.00,VWS V14.01,2013-01-08 07:11:00,
2013-01-08 00:12:00,51.1,10.3,17.72,West,265,9.2,10.5,19,0.00,,CLR,0.00,VWS V14.01,2013-01-08 07:12:00,
2013-01-08 00:13:00,51.1,10.3,17.72,West,265,9.2,10.5,19,0.00,,CLR,0.00,VWS V14.01,2013-01-08 07:13:00,
2013-01-08 00:14:00,51.4,10.6,17.72,WSW,258,6.3,9.2,19,0.00,,CLR,0.00,VWS V14.01,2013-01-08 07:14:00,
2013-01-08 00:15:00,51.6,10.7,17.72,WSW,258,6.3,6.3,19,0.00,,CLR,0.00,VWS V14.01,2013-01-08 07:15:00,
2013-01-08 00:16:00,51.6,10.7,17.72,West,272,10.1,10.1,19,0.00,,CLR,0.00,VWS V14.01,2013-01-08 07:16:00,
2013-01-08 00:17:00,51.6,10.7,17.72,West,272,10.1,10.1,19,0.00,,CLR,0.00,VWS V14.01,2013-01-08 07:17:00,
2013-01-08 00:18:00,51.6,10.7,17.72,West,272,10.1,10.1,19,0.00,,CLR,0.00,VWS V14.01,2013-01-08 07:18:00,
2013-01-08 00:19:00,52.7,10.4,17.72,West,280,6.3,10.1,18,0.00,,CLR,0.00,VWS V14.01,2013-01-08 07:19:00,
2013-01-08 00:20:00,52.7,10.4,17.72,West,280,6.3,6.3,18,0.00,,CLR,0.00,VWS V14.01,2013-01-08 07:20:00,
2013-01-08 00:21:00,52.7,10.4,17.72,West,280,6.3,6.3,18,0.00,,CLR,0.00,VWS V14.01,2013-01-08 07:21:00,
2013-01-08 00:22:00,53.2,10.9,17.72,West,280,6.3,6.3,18,0.00,,CLR,0.00,VWS V14.01,2013-01-08 07:22:00,
2013-01-08 00:23:00,53.2,10.9,17.72,West,280,6.3,6.3,18,0.00,,CLR,0.00,VWS V14.01,2013-01-08 07:23:00,
2013-01-08 00:24:00,53.2,10.9,17.72,West,280,6.3,6.3,18,0.00,,CLR,0.00,VWS V14.01,2013-01-08 07:24:00,
2013-01-08 00:25:00,53.2,10.9,17.72,WSW,248,6.3,6.3,18,0.00,,CLR,0.00,VWS V14.01,2013-01-08 07:25:00,
2013-01-08 00:26:00,53.2,10.9,17.72,WSW,248,6.3,6.3,18,0.00,,CLR,0.00,VWS V14.01,2013-01-08 07:26:00,
2013-01-08 00:27:00,53.2,10.9,17.72,West,268,6.7,6.7,18,0.00,,CLR,0.00,VWS V14.01,2013-01-08 07:27:00,
2013-01-08 00:28:00,53.2,10.9,17.72,WNW,282,5.4,5.8,18,0.00,,CLR,0.00,VWS V14.01,2013-01-08 07:28:00,
2013-01-08 00:29:00,53.2,10.9,17.72,WNW,282,5.4,5.8,18,0.00,,CLR,0.00,VWS V14.01,2013-01-08 07:29:00,
2013-01-08 00:30:00,53.2,10.9,17.72,West,274,6.3,6.3,18,0.00,,CLR,0.00,VWS V14.01,2013-01-08 07:30:00,
2013-01-08 00:31:00,53.2,10.9,17.72,WNW,286,6.3,6.3,18,0.00,,CLR,0.00,VWS V14.01,2013-01-08 07:31:00,
2013-01-08 00:32:00,52.9,10.6,17.72,West,281,6.3,6.3,18,0.00,,CLR,0.00,VWS V14.01,2013-01-08 07:32:00,
2013-01-08 00:33:00,52.9,10.6,17.72,West,281,6.3,6.3,18,0.00,,CLR,0.00,VWS V14.01,2013-01-08 07:33:00,
2013-01-08 00:34:00,52.9,10.6,17.72,West,281,6.3,6.3,18,0.00,,CLR,0.00,VWS V14.01,2013-01-08 07:34:00,
2013-01-08 00:35:00,52.9,10.6,17.72,West,281,6.3,6.3,18,0.00,,CLR,0.00,VWS V14.01,2013-01-08 07:35:00,
2013-01-08 00:36:00,52.9,10.6,17.72,West,277,5.8,6.3,18,0.00,,CLR,0.00,VWS V14.01,2013-01-08 07:36:00,
2013-01-08 00:37:00,52.9,10.6,17.72,West,268,6.3,6.3,18,0.00,,CLR,0.00,VWS V14.01,2013-01-08 07:37:00,
2013-01-08 00:38:00,52.2,10.0,17.72,West,280,5.4,6.3,18,0.00,,CLR,0.00,VWS V14.01,2013-01-08 07:38:00,
2013-01-08 00:39:00,52.0,9.8,17.72,West,262,4.9,5.4,18,0.00,,CLR,0.00,VWS V14.01,2013-01-08 07:39:00,
2013-01-08 00:40:00,52.0,9.8,17.72,West,262,4.9,5.4,18,0.00,,CLR,0.00,VWS V14.01,2013-01-08 07:40:00,
2013-01-08 00:41:00,52.0,9.8,17.72,West,273,5.4,5.4,18,0.00,,CLR,0.00,VWS V14.01,2013-01-08 07:41:00,
2013-01-08 00:42:00,52.0,9.8,17.72,West,273,5.4,5.4,18,0.00,,CLR,0.00,VWS V14.01,2013-01-08 07:42:00,
2013-01-08 00:43:00,52.0,9.8,17.72,West,259,5.8,5.8,18,0.00,,CLR,0.00,VWS V14.01,2013-01-08 07:43:00,
2013-01-08 00:44:00,52.0,9.8,17.72,West,259,5.8,5.8,18,0.00,,CLR,0.00,VWS V14.01,2013-01-08 07:44:00,
2013-01-08 00:45:00,52.0,9.8,17.72,West,259,5.8,5.8,18,0.00,,CLR,0.00,VWS V14.01,2013-01-08 07:45:00,
2013-01-08 00:46:00,52.0,9.8,17.72,WNW,288,6.7,6.7,18,0.00,,CLR,0.00,VWS V14.01,2013-01-08 07:46:00,
2013-01-08 00:47:00,52.0,9.8,17.72,WNW,288,6.7,6.7,18,0.00,,CLR,0.00,VWS V14.01,2013-01-08 07:47:00,
2013-01-08 00:48:00,52.0,9.8,17.72,WNW,288,6.7,6.7,18,0.00,,CLR,0.00,VWS V14.01,2013-01-08 07:48:00,
2013-01-08 00:49:00,52.0,9.8,17.72,WNW,288,6.7,6.7,18,0.00,,CLR,0.00,VWS V14.01,2013-01-08 07:49:00,
2013-01-08 00:50:00,52.0,9.8,17.72,WNW,297,6.3,6.3,18,0.00,,CLR,0.00,VWS V14.01,2013-01-08 07:50:00,
2013-01-08 00:51:00,52.0,9.8,17.72,WNW,297,6.3,6.3,18,0.00,,CLR,0.00,VWS V14.01,2013-01-08 07:51:00,
2013-01-08 00:52:00,52.0,9.8,17.72,West,274,5.4,6.3,18,0.00,,CLR,0.00,VWS V14.01,2013-01-08 07:52:00,
2013-01-08 00:53:00,52.0,9.8,17.72,West,274,5.4,5.4,18,0.00,,CLR,0.00,VWS V14.01,2013-01-08 07:53:00,
2013-01-08 00:54:00,50.7,10.0,17.72,West,264,4.9,5.4,19,0.00,,CLR,0.00,VWS V14.01,2013-01-08 07:54:00,
2013-01-08 00:55:00,50.5,9.8,17.72,West,265,5.4,5.4,19,0.00,,CLR,0.00,VWS V14.01,2013-01-08 07:55:00,
2013-01-08 00:56:00,50.5,9.8,17.72,West,265,5.4,5.4,19,0.00,,CLR,0.00,VWS V14.01,2013-01-08 07:56:00,
2013-01-08 00:57:00,50.5,9.8,17.72,West,273,4.0,5.4,19,0.00,,CLR,0.00,VWS V14.01,2013-01-08 07:57:00,
2013-01-08 00:58:00,50.5,9.8,17.72,West,273,4.0,4.0,19,0.00,,CLR,0.00,VWS V14.01,2013-01-08 07:58:00,
2013-01-08 00:59:00,50.4,9.7,17.72,West,273,4.0,4.0,19,0.00,,CLR,0.00,VWS V14.01,2013-01-08 07:59:00,
2013-01-08 01:00:00,50.4,9.7,17.72,West,273,4.0,4.0,19,0.00,,CLR,0.00,VWS V14.01,2013-01-08 08:00:00,
2013-01-08 01:01:00,50.4,9.7,17.72,West,270,6.3,6.3,19,0.00,,CLR,0.00,VWS V14.01,2013-01-08 08:01:00,
2013-01-08 01:02:00,50.4,9.7,17.72,WNW,285,5.4,6.3,19,0.00,,CLR,0.00,VWS V14.01,2013-01-08 08:02:00,
2013-01-08 01:03:00,50.4,9.7,17.72,WNW,285,5.4,5.4,19,0.00,,CLR,0.00,VWS V14.01,2013-01-08 08:03:00,
2013-01-08 01:04:00,50.2,9.5,17.72,WNW,285,5.4,5.4,19,0.00,,CLR,0.00,VWS V14.01,2013-01-08 08:04:00,
2013-01-08 01:05:00,50.2,9.5,17.72,West,276,5.4,5.4,19,0.00,,CLR,0.00,VWS V14.01,2013-01-08 08:05:00,
2013-01-08 01:06:00,50.2,9.5,17.72,West,276,5.4,5.4,19,0.00,,CLR,0.00,VWS V14.01,2013-01-08 08:06:00,
2013-01-08 01:07:00,50.2,9.5,17.72,WNW,283,8.3,8.3,19,0.00,,CLR,0.00,VWS V14.01,2013-01-08 08:07:00,
2013-01-08 01:08:00,50.2,9.5,17.72,WNW,283,8.3,8.3,19,0.00,,CLR,0.00,VWS V14.01,2013-01-08 08:08:00,
2013-01-08 01:09:00,50.2,9.5,17.72,WNW,283,8.3,8.3,19,0.00,,CLR,0.00,VWS V14.01,2013-01-08 08:09:00,
2013-01-08 01:10:00,50.2,9.5,17.72,West,277,7.6,8.3,19,0.00,,CLR,0.00,VWS V14.01,2013-01-08 08:10:00,
2013-01-08 01:11:00,51.3,10.4,17.72,West,277,7.6,7.6,19,0.00,,CLR,0.00,VWS V14.01,2013-01-08 08:11:00,
2013-01-08 01:12:00,51.3,10.4,17.72,West,271,7.6,7.6,19,0.00,,CLR,0.00,VWS V14.01,2013-01-08 08:12:00,
2013-01-08 01:13:00,51.3,10.4,17.72,West,280,6.3,7.6,19,0.00,,CLR,0.00,VWS V14.01,2013-01-08 08:13:00,
2013-01-08 01:14:00,51.3,10.4,17.72,West,275,7.6,7.6,19,0.00,,CLR,0.00,VWS V14.01,2013-01-08 08:14:00,
2013-01-08 01:15:00,51.3,10.4,17.72,West,275,7.6,7.6,19,0.00,,CLR,0.00,VWS V14.01,2013-01-08 08:15:00,
2013-01-08 01:16:00,51.3,10.4,17.72,WNW,291,6.3,7.6,19,0.00,,CLR,0.00,VWS V14.01,2013-01-08 08:16:00,
2013-01-08 01:17:00,51.3,10.4,17.72,West,277,7.6,7.6,19,0.00,,CLR,0.00,VWS V14.01,2013-01-08 08:17:00,
2013-01-08 01:18:00,51.3,10.4,17.72,West,270,5.4,7.6,19,0.00,,CLR,0.00,VWS V14.01,2013-01-08 08:18:00,
2013-01-08 01:19:00,52.5,10.2,17.72,West,274,8.3,8.3,18,0.00,,CLR,0.00,VWS V14.01,2013-01-08 08:19:00,
2013-01-08 01:20:00,52.5,10.2,17.72,NW,304,10.5,10.5,18,0.00,,CLR,0.00,VWS V14.01,2013-01-08 08:20:00,
2013-01-08 01:21:00,52.7,10.4,17.72,NW,304,10.5,10.5,18,0.00,,CLR,0.00,VWS V14.01,2013-01-08 08:21:00,
2013-01-08 01:22:00,52.7,10.4,17.72,NW,304,10.5,10.5,18,0.00,,CLR,0.00,VWS V14.01,2013-01-08 08:22:00,
2013-01-08 01:23:00,52.9,10.6,17.72,West,278,5.8,10.5,18,0.00,,CLR,0.00,VWS V14.01,2013-01-08 08:23:00,
2013-01-08 01:24:00,52.9,10.6,17.72,WNW,283,6.3,6.3,18,0.00,,CLR,0.00,VWS V14.01,2013-01-08 08:24:00,
2013-01-08 01:25:00,52.9,10.6,17.72,WNW,283,6.3,6.3,18,0.00,,CLR,0.00,VWS V14.01,2013-01-08 08:25:00,
2013-01-08 01:26:00,53.1,10.7,17.72,West,280,5.8,6.3,18,0.00,,CLR,0.00,VWS V14.01,2013-01-08 08:26:00,
2013-01-08 01:27:00,53.1,10.7,17.72,West,280,5.8,5.8,18,0.00,,CLR,0.00,VWS V14.01,2013-01-08 08:27:00,
2013-01-08 01:28:00,52.9,10.6,17.72,West,280,5.8,5.8,18,0.00,,CLR,0.00,VWS V14.01,2013-01-08 08:28:00,
2013-01-08 01:29:00,52.9,10.6,17.72,WNW,290,4.0,5.8,18,0.00,,CLR,0.00,VWS V14.01,2013-01-08 08:29:00,
2013-01-08 01:30:00,52.9,10.6,17.72,WNW,290,4.0,4.0,18,0.00,,CLR,0.00,VWS V14.01,2013-01-08 08:30:00,
2013-01-08 01:31:00,52.9,10.6,17.72,WNW,290,4.0,4.0,18,0.00,,CLR,0.00,VWS V14.01,2013-01-08 08:31:00,
2013-01-08 01:32:00,52.9,10.6,17.72,West,267,8.1,8.1,18,0.00,,CLR,0.00,VWS V14.01,2013-01-08 08:32:00,
2013-01-08 01:33:00,52.9,10.6,17.72,West,267,8.1,8.1,18,0.00,,CLR,0.00,VWS V14.01,2013-01-08 08:33:00,
2013-01-08 01:34:00,52.9,10.6,17.72,West,279,10.1,10.1,18,0.00,,CLR,0.00,VWS V14.01,2013-01-08 08:34:00,
2013-01-08 01:35:00,52.5,10.2,17.72,West,267,8.3,10.1,18,0.00,,CLR,0.00,VWS V14.01,2013-01-08 08:35:00,
2013-01-08 01:36:00,52.5,10.2,17.72,West,267,8.3,10.1,18,0.00,,CLR,0.00,VWS V14.01,2013-01-08 08:36:00,
2013-01-08 01:37:00,52.5,10.2,17.72,West,272,6.3,8.3,18,0.00,,CLR,0.00,VWS V14.01,2013-01-08 08:37:00,
2013-01-08 01:38:00,52.5,10.2,17.72,West,277,7.6,9.2,18,0.00,,CLR,0.00,VWS V14.01,2013-01-08 08:38:00,
2013-01-08 01:39:00,52.5,10.2,17.72,West,277,7.6,7.6,18,0.00,,CLR,0.00,VWS V14.01,2013-01-08 08:39:00,
2013-01-08 01:40:00,52.9,10.6,17.72,West,268,7.2,7.2,18,0.00,,CLR,0.00,VWS V14.01,2013-01-08 08:40:00,
2013-01-08 01:41:00,52.9,10.6,17.72,West,268,7.2,7.2,18,0.00,,CLR,0.00,VWS V14.01,2013-01-08 08:41:00,
2013-01-08 01:42:00,52.9,10.6,17.72,West,268,7.2,7.2,18,0.00,,CLR,0.00,VWS V14.01,2013-01-08 08:42:00,
2013-01-08 01:43:00,52.9,10.6,17.72,West,268,7.2,7.2,18,0.00,,CLR,0.00,VWS V14.01,2013-01-08 08:43:00,
2013-01-08 01:44:00,53.1,10.7,17.72,WSW,251,5.4,7.6,18,0.00,,CLR,0.00,VWS V14.01,2013-01-08 08:44:00,
2013-01-08 01:45:00,53.1,10.7,17.72,WSW,251,5.4,5.4,18,0.00,,CLR,0.00,VWS V14.01,2013-01-08 08:45:00,
2013-01-08 01:46:00,53.1,10.7,17.72,West,268,5.4,5.4,18,0.00,,CLR,0.00,VWS V14.01,2013-01-08 08:46:00,
2013-01-08 01:47:00,53.1,10.7,17.72,West,268,5.4,5.4,18,0.00,,CLR,0.00,VWS V14.01,2013-01-08 08:47:00,
2013-01-08 01:48:00,53.1,10.7,17.72,West,268,5.4,5.4,18,0.00,,CLR,0.00,VWS V14.01,2013-01-08 08:48:00,
2013-01-08 01:49:00,53.1,10.7,17.72,West,268,5.4,5.4,18,0.00,,CLR,0.00,VWS V14.01,2013-01-08 08:49:00,
2013-01-08 01:50:00,53.1,10.7,17.72,West,265,6.3,6.3,18,0.00,,CLR,0.00,VWS V14.01,2013-01-08 08:50:00,
2013-01-08 01:51:00,53.1,10.7,17.72,West,265,6.3,6.3,18,0.00,,CLR,0.00,VWS V14.01,2013-01-08 08:51:00,
2013-01-08 01:52:00,52.9,10.6,17.72,West,265,6.3,6.3,18,0.00,,CLR,0.00,VWS V14.01,2013-01-08 08:52:00,
2013-01-08 01:53:00,52.9,10.6,17.72,West,267,5.8,6.3,18,0.00,,CLR,0.00,VWS V14.01,2013-01-08 08:53:00,
2013-01-08 01:54:00,52.9,10.6,17.72,WSW,247,3.6,5.8,18,0.00,,CLR,0.00,VWS V14.01,2013-01-08 08:54:00,
2013-01-08 01:55:00,52.9,10.6,17.72,WSW,256,3.6,3.6,18,0.00,,CLR,0.00,VWS V14.01,2013-01-08 08:55:00,
2013-01-08 01:56:00,52.9,10.6,17.72,WSW,256,3.6,3.6,18,0.00,,CLR,0.00,VWS V14.01,2013-01-08 08:56:00,
2013-01-08 01:57:00,52.2,10.0,17.72,WSW,247,2.7,2.7,18,0.00,,CLR,0.00,VWS V14.01,2013-01-08 08:57:00,
2013-01-08 01:58:00,52.2,10.0,17.72,WSW,247,2.7,2.7,18,0.00,,CLR,0.00,VWS V14.01,2013-01-08 08:58:00,
2013-01-08 01:59:00,52.2,10.0,17.72,WSW,257,0.0,3.6,18,0.00,,CLR,0.00,VWS V14.01,2013-01-08 08:59:00,
2013-01-08 02:00:00,52.2,10.0,17.72,WSW,257,0.0,0.0,18,0.00,,CLR,0.00,VWS V14.01,2013-01-08 09:00:00,
2013-01-08 02:01:00,52.2,10.0,17.72,WSW,251,3.1,3.1,18,0.00,,CLR,0.00,VWS V14.01,2013-01-08 09:01:00,
2013-01-08 02:02:00,52.2,10.0,17.72,WSW,251,0.0,0.0,18,0.00,,CLR,0.00,VWS V14.01,2013-01-08 09:02:00,
2013-01-08 02:03:00,52.2,10.0,17.72,WSW,251,0.0,0.0,18,0.00,,CLR,0.00,VWS V14.01,2013-01-08 09:03:00,
2013-01-08 02:04:00,52.2,10.0,17.72,WSW,251,0.0,0.0,18,0.00,,CLR,0.00,VWS V14.01,2013-01-08 09:04:00,
2013-01-08 02:05:00,51.3,10.4,17.72,WSW,248,6.3,6.3,19,0.00,,CLR,0.00,VWS V14.01,2013-01-08 09:05:00,
2013-01-08 02:06:00,51.1,10.3,17.72,WSW,244,6.3,6.3,19,0.00,,CLR,0.00,VWS V14.01,2013-01-08 09:06:00,
2013-01-08 02:07:00,50.9,10.1,17.72,WSW,242,4.0,6.3,19,0.00,,CLR,0.00,VWS V14.01,2013-01-08 09:07:00,
2013-01-08 02:08:00,50.7,10.0,17.72,SW,232,5.8,5.8,19,0.00,,CLR,0.00,VWS V14.01,2013-01-08 09:08:00,
2013-01-08 02:09:00,50.5,9.8,17.72,West,259,6.3,6.3,19,0.00,,CLR,0.00,VWS V14.01,2013-01-08 09:09:00,
2013-01-08 02:10:00,50.4,9.7,17.72,WSW,258,4.0,6.3,19,0.00,,CLR,0.00,VWS V14.01,2013-01-08 09:10:00,
2013-01-08 02:11:00,50.2,9.5,17.72,SW,235,6.3,6.3,19,0.00,,CLR,0.00,VWS V14.01,2013-01-08 09:11:00,
2013-01-08 02:12:00,50.2,9.5,17.72,WSW,245,4.9,7.6,19,0.00,,CLR,0.00,VWS V14.01,2013-01-08 09:12:00,
2013-01-08 02:13:00,50.0,9.4,17.72,SW,226,5.4,6.3,19,0.00,,CLR,0.00,VWS V14.01,2013-01-08 09:13:00,
2013-01-08 02:14:00,50.0,9.4,17.72,SW,226,5.4,6.3,19,0.00,,CLR,0.00,VWS V14.01,2013-01-08 09:14:00,
2013-01-08 02:15:00,49.8,9.2,17.72,WSW,250,5.8,7.2,19,0.00,,CLR,0.00,VWS V14.01,2013-01-08 09:15:00,
2013-01-08 02:16:00,49.8,9.2,17.72,WSW,255,5.8,6.3,19,0.00,,CLR,0.00,VWS V14.01,2013-01-08 09:16:00,
2013-01-08 02:17:00,49.8,9.2,17.72,SW,231,8.3,8.3,19,0.00,,CLR,0.00,VWS V14.01,2013-01-08 09:17:00,
2013-01-08 02:18:00,49.8,9.2,17.72,SW,227,6.3,8.3,19,0.00,,CLR,0.00,VWS V14.01,2013-01-08 09:18:00,
2013-01-08 02:19:00,49.8,9.2,17.72,SW,225,8.7,8.7,19,0.00,,CLR,0.00,VWS V14.01,2013-01-08 09:19:00,
2013-01-08 02:20:00,49.8,9.2,17.72,SW,233,7.2,8.7,19,0.00,,CLR,0.00,VWS V14.01,2013-01-08 09:20:00,
2013-01-08 02:21:00,49.8,9.2,17.72,WSW,244,6.3,7.2,19,0.00,,CLR,0.00,VWS V14.01,2013-01-08 09:21:00,
2013-01-08 02:22:00,49.8,9.2,17.72,WSW,242,5.4,6.3,19,0.00,,CLR,0.00,VWS V14.01,2013-01-08 09:22:00,
2013-01-08 02:23:00,49.8,9.2,17.72,WSW,246,7.6,8.1,19,0.00,,CLR,0.00,VWS V14.01,2013-01-08 09:23:00,
2013-01-08 02:24:00,49.8,9.2,17.72,SW,227,6.3,6.3,19,0.00,,CLR,0.00,VWS V14.01,2013-01-08 09:24:00,
2013-01-08 02:25:00,49.8,9.2,17.72,SW,227,6.3,6.3,19,0.00,,CLR,0.00,VWS V14.01,2013-01-08 09:25:00,
2013-01-08 02:26:00,49.8,9.2,17.72,SW,229,6.3,6.3,19,0.00,,CLR,0.00,VWS V14.01,2013-01-08 09:26:00,
2013-01-08 02:27:00,49.8,9.2,17.72,WSW,242,4.0,6.7,19,0.00,,CLR,0.00,VWS V14.01,2013-01-08 09:27:00,
2013-01-08 02:28:00,49.8,9.2,17.72,SW,236,8.3,8.3,19,0.00,,CLR,0.00,VWS V14.01,2013-01-08 09:28:00,
2013-01-08 02:29:00,49.6,9.1,17.72,SW,229,5.4,8.3,19,0.00,,CLR,0.00,VWS V14.01,2013-01-08 09:29:00,
2013-01-08 02:30:00,49.6,9.1,17.72,WSW,240,4.9,6.3,19,0.00,,CLR,0.00,VWS V14.01,2013-01-08 09:30:00,
2013-01-08 02:31:00,49.6,9.1,17.72,WSW,250,5.8,6.3,19,0.00,,CLR,0.00,VWS V14.01,2013-01-08 09:31:00,
2013-01-08 02:32:00,49.6,9.1,17.72,SW,229,7.6,7.6,19,0.00,,CLR,0.00,VWS V14.01,2013-01-08 09:32:00,
2013-01-08 02:33:00,49.5,8.9,17.72,SW,235,7.6,8.1,19,0.00,,CLR,0.00,VWS V14.01,2013-01-08 09:33:00,
2013-01-08 02:34:00,49.5,8.9,17.72,WSW,242,8.1,8.1,19,0.00,,CLR,0.00,VWS V14.01,2013-01-08 09:34:00,
2013-01-08 02:35:00,49.3,8.8,17.72,WSW,249,5.8,8.1,19,0.00,,CLR,0.00,VWS V14.01,2013-01-08 09:35:00,
2013-01-08 02:36:00,49.3,8.8,17.72,WSW,240,6.3,6.3,19,0.00,,CLR,0.00,VWS V14.01,2013-01-08 09:36:00,
2013-01-08 02:37:00,49.3,8.8,17.72,WSW,238,4.0,6.3,19,0.00,,CLR,0.00,VWS V14.01,2013-01-08 09:37:00,
2013-01-08 02:38:00,49.1,8.6,17.72,WSW,244,6.3,6.3,19,0.00,,CLR,0.00,VWS V14.01,2013-01-08 09:38:00,
2013-01-08 02:39:00,49.1,8.6,17.72,WSW,252,4.0,6.3,19,0.00,,CLR,0.00,VWS V14.01,2013-01-08 09:39:00,
2013-01-08 02:40:00,48.9,8.5,17.72,SW,225,5.4,5.4,19,0.00,,CLR,0.00,VWS V14.01,2013-01-08 09:40:00,
2013-01-08 02:41:00,48.7,8.3,17.72,WSW,247,6.3,6.7,19,0.00,,CLR,0.00,VWS V14.01,2013-01-08 09:41:00,
2013-01-08 02:42:00,48.7,8.3,17.72,WSW,247,6.3,6.7,19,0.00,,CLR,0.00,VWS V14.01,2013-01-08 09:42:00,
2013-01-08 02:43:00,48.7,8.3,17.72,WSW,244,4.0,6.3,19,0.00,,CLR,0.00,VWS V14.01,2013-01-08 09:43:00,
2013-01-08 02:44:00,48.7,8.3,17.72,WSW,239,5.4,5.4,19,0.00,,CLR,0.00,VWS V14.01,2013-01-08 09:44:00,
2013-01-08 02:45:00,48.6,8.2,17.72,WSW,241,4.0,5.4,19,0.00,,CLR,0.00,VWS V14.01,2013-01-08 09:45:00,
2013-01-08 02:46:00,48.4,8.0,17.72,West,277,4.0,6.3,19,0.00,,CLR,0.00,VWS V14.01,2013-01-08 09:46:00,
2013-01-08 02:47:00,48.4,8.0,17.72,SW,234,5.8,5.8,19,0.00,,CLR,0.00,VWS V14.01,2013-01-08 09:47:00,
2013-01-08 02:48:00,48.2,7.9,17.72,WSW,238,5.4,5.8,19,0.00,,CLR,0.00,VWS V14.01,2013-01-08 09:48:00,
2013-01-08 02:49:00,48.2,7.9,17.72,WSW,247,5.8,5.8,19,0.00,,CLR,0.00,VWS V14.01,2013-01-08 09:49:00,
2013-01-08 02:50:00,48.2,7.9,17.72,SW,232,5.4,5.8,19,0.00,,CLR,0.00,VWS V14.01,2013-01-08 09:50:00,
2013-01-08 02:51:00,48.2,7.9,17.72,WSW,247,5.4,6.3,19,0.00,,CLR,0.00,VWS V14.01,2013-01-08 09:51:00,
2013-01-08 02:52:00,48.0,7.7,17.72,SW,221,5.8,5.8,19,0.00,,CLR,0.00,VWS V14.01,2013-01-08 09:52:00,
2013-01-08 02:53:00,48.0,7.7,17.72,SW,221,5.8,5.8,19,0.00,,CLR,0.00,VWS V14.01,2013-01-08 09:53:00,
2013-01-08 02:54:00,48.0,7.7,17.72,SW,232,3.6,5.8,19,0.00,,CLR,0.00,VWS V14.01,2013-01-08 09:54:00,
2013-01-08 02:55:00,48.0,7.7,17.72,WSW,258,6.3,6.3,19,0.00,,CLR,0.00,VWS V14.01,2013-01-08 09:55:00,
2013-01-08 02:56:00,47.8,7.6,17.72,WSW,246,5.4,6.3,19,0.00,,CLR,0.00,VWS V14.01,2013-01-08 09:56:00,
2013-01-08 02:57:00,47.8,7.6,17.72,SW,231,6.3,6.3,19,0.00,,CLR,0.00,VWS V14.01,2013-01-08 09:57:00,
2013-01-08 02:58:00,47.8,7.6,17.72,SW,231,6.3,6.3,19,0.00,,CLR,0.00,VWS V14.01,2013-01-08 09:58:00,
2013-01-08 02:59:00,47.8,7.6,17.72,SW,234,6.7,6.7,19,0.00,,CLR,0.00,VWS V14.01,2013-01-08 09:59:00,
2013-01-08 03:00:00,47.8,7.6,17.72,SW,226,6.3,6.7,19,0.00,,CLR,0.00,VWS V14.01,2013-01-08 10:00:00,
2013-01-08 03:01:00,47.8,7.6,17.72,WSW,248,5.8,7.6,19,0.00,,CLR,0.00,VWS V14.01,2013-01-08 10:01:00,
2013-01-08 03:02:00,47.7,7.4,17.72,WSW,249,5.8,5.8,19,0.00,,CLR,0.00,VWS V14.01,2013-01-08 10:02:00,
2013-01-08 03:03:00,47.7,10.7,17.72,WSW,239,5.4,5.8,22,0.00,,CLR,0.00,VWS V14.01,2013-01-08 10:03:00,
2013-01-08 03:04:00,47.7,10.7,17.72,WSW,239,5.4,5.8,22,0.00,,CLR,0.00,VWS V14.01,2013-01-08 10:04:00,
2013-01-08 03:05:00,47.7,10.7,17.72,WSW,250,4.9,5.8,22,0.00,,CLR,0.00,VWS V14.01,2013-01-08 10:05:00,
2013-01-08 03:06:00,47.5,10.6,17.72,WSW,250,4.9,4.9,22,0.00,,CLR,0.00,VWS V14.01,2013-01-08 10:06:00,
2013-01-08 03:07:00,47.5,10.6,17.72,WSW,246,3.1,4.9,22,0.00,,CLR,0.00,VWS V14.01,2013-01-08 10:07:00,
2013-01-08 03:08:00,47.5,10.6,17.72,WSW,238,3.1,3.1,22,0.00,,CLR,0.00,VWS V14.01,2013-01-08 10:08:00,
2013-01-08 03:09:00,47.5,10.6,17.72,SW,226,4.0,4.9,22,0.00,,CLR,0.00,VWS V14.01,2013-01-08 10:09:00,
2013-01-08 03:10:00,47.3,10.4,17.72,WSW,241,4.9,4.9,22,0.00,,CLR,0.00,VWS V14.01,2013-01-08 10:10:00,
2013-01-08 03:11:00,47.3,10.4,17.72,SW,231,5.8,5.8,22,0.00,,CLR,0.00,VWS V14.01,2013-01-08 10:11:00,
2013-01-08 03:12:00,47.3,10.4,17.72,SW,231,5.8,5.8,22,0.00,,CLR,0.00,VWS V14.01,2013-01-08 10:12:00,
2013-01-08 03:13:00,47.3,10.4,17.72,WSW,239,2.7,5.8,22,0.00,,CLR,0.00,VWS V14.01,2013-01-08 10:13:00,
2013-01-08 03:14:00,47.1,10.2,17.72,WSW,239,3.1,3.1,22,0.00,,CLR,0.00,VWS V14.01,2013-01-08 10:14:00,
2013-01-08 03:15:00,47.1,10.2,17.72,WSW,237,3.6,3.6,22,0.00,,CLR,0.00,VWS V14.01,2013-01-08 10:15:00,
2013-01-08 03:16:00,47.1,10.2,17.72,WSW,240,3.1,3.6,22,0.00,,CLR,0.00,VWS V14.01,2013-01-08 10:16:00,
2013-01-08 03:17:00,47.1,10.2,17.72,SW,231,3.6,3.6,22,0.00,,CLR,0.00,VWS V14.01,2013-01-08 10:17:00,
2013-01-08 03:18:00,46.9,10.1,17.72,SW,231,2.7,3.6,22,0.00,,CLR,0.00,VWS V14.01,2013-01-08 10:18:00,
2013-01-08 03:19:00,46.9,10.1,17.72,SW,231,2.7,2.7,22,0.00,,CLR,0.00,VWS V14.01,2013-01-08 10:19:00,
2013-01-08 03:20:00,46.9,10.1,17.72,SW,231,0.0,3.1,22,0.00,,CLR,0.00,VWS V14.01,2013-01-08 10:20:00,
2013-01-08 03:21:00,46.9,10.1,17.72,WSW,237,0.0,0.0,22,0.00,,CLR,0.00,VWS V14.01,2013-01-08 10:21:00,
2013-01-08 03:22:00,46.8,9.9,17.72,West,265,2.7,2.7,22,0.00,,CLR,0.00,VWS V14.01,2013-01-08 10:22:00,
2013-01-08 03:23:00,46.8,9.9,17.72,West,261,3.1,3.1,22,0.00,,CLR,0.00,VWS V14.01,2013-01-08 10:23:00,
2013-01-08 03:24:00,46.8,9.9,17.72,WSW,257,3.1,3.6,22,0.00,,CLR,0.00,VWS V14.01,2013-01-08 10:24:00,
2013-01-08 03:25:00,46.8,9.9,17.72,WSW,244,2.7,4.0,22,0.00,,CLR,0.00,VWS V14.01,2013-01-08 10:25:00,
2013-01-08 03:26:00,46.8,9.9,17.72,WSW,254,3.6,6.3,22,0.00,,CLR,0.00,VWS V14.01,2013-01-08 10:26:00,
2013-01-08 03:27:00,46.8,9.9,17.72,West,263,5.4,5.4,22,0.00,,CLR,0.00,VWS V14.01,2013-01-08 10:27:00,
2013-01-08 03:28:00,46.6,9.8,17.72,West,260,5.8,5.8,22,0.00,,CLR,0.00,VWS V14.01,2013-01-08 10:28:00,
2013-01-08 03:29:00,46.6,9.8,17.72,WSW,256,4.0,5.8,22,0.00,,CLR,0.00,VWS V14.01,2013-01-08 10:29:00,
2013-01-08 03:30:00,46.6,9.8,17.72,WSW,250,5.8,5.8,22,0.00,,CLR,0.00,VWS V14.01,2013-01-08 10:30:00,
2013-01-08 03:31:00,46.6,9.8,17.72,West,267,5.8,5.8,22,0.00,,CLR,0.00,VWS V14.01,2013-01-08 10:31:00,
2013-01-08 03:32:00,46.6,9.8,17.72,West,267,5.8,5.8,22,0.00,,CLR,0.00,VWS V14.01,2013-01-08 10:32:00,
2013-01-08 03:33:00,46.6,9.8,17.72,West,267,5.8,5.8,22,0.00,,CLR,0.00,VWS V14.01,2013-01-08 10:33:00,
2013-01-08 03:34:00,46.6,9.8,17.72,West,266,5.8,8.1,22,0.00,,CLR,0.00,VWS V14.01,2013-01-08 10:34:00,
2013-01-08 03:35:00,46.6,9.8,17.72,WNW,285,8.3,8.3,22,0.00,,CLR,0.00,VWS V14.01,2013-01-08 10:35:00,
2013-01-08 03:36:00,46.6,9.8,17.72,West,274,7.6,8.3,22,0.00,,CLR,0.00,VWS V14.01,2013-01-08 10:36:00,
2013-01-08 03:37:00,46.6,9.8,17.72,West,274,7.6,8.3,22,0.00,,CLR,0.00,VWS V14.01,2013-01-08 10:37:00,
2013-01-08 03:38:00,46.6,9.8,17.72,West,274,7.6,7.6,22,0.00,,CLR,0.00,VWS V14.01,2013-01-08 10:38:00,
2013-01-08 03:39:00,46.8,9.9,17.72,WSW,245,8.3,8.7,22,0.00,,CLR,0.00,VWS V14.01,2013-01-08 10:39:00,
2013-01-08 03:40:00,46.9,10.1,17.72,West,265,5.8,8.3,22,0.00,,CLR,0.00,VWS V14.01,2013-01-08 10:40:00,
2013-01-08 03:41:00,47.3,10.4,17.72,West,271,6.3,7.6,22,0.00,,CLR,0.00,VWS V14.01,2013-01-08 10:41:00,
2013-01-08 03:42:00,47.3,10.4,17.72,West,271,6.3,7.6,22,0.00,,CLR,0.00,VWS V14.01,2013-01-08 10:42:00,
2013-01-08 03:43:00,47.3,10.4,17.72,West,281,8.1,8.1,22,0.00,,CLR,0.00,VWS V14.01,2013-01-08 10:43:00,
2013-01-08 03:44:00,47.5,10.6,17.72,WSW,247,9.6,9.6,22,0.00,,CLR,0.00,VWS V14.01,2013-01-08 10:44:00,
2013-01-08 03:45:00,47.5,10.6,17.72,West,263,8.1,10.5,22,0.00,,CLR,0.00,VWS V14.01,2013-01-08 10:45:00,
2013-01-08 03:46:00,47.8,10.9,17.72,WSW,254,10.1,10.1,22,0.00,,CLR,0.00,VWS V14.01,2013-01-08 10:46:00,
2013-01-08 03:47:00,48.0,11.0,17.72,West,266,8.7,10.1,22,0.00,,CLR,0.00,VWS V14.01,2013-01-08 10:47:00,
2013-01-08 03:48:00,48.2,7.9,17.72,WSW,254,8.1,8.7,19,0.00,,CLR,0.00,VWS V14.01,2013-01-08 10:48:00,
2013-01-08 03:49:00,48.4,8.0,17.72,WNW,291,9.2,9.2,19,0.00,,CLR,0.00,VWS V14.01,2013-01-08 10:49:00,
2013-01-08 03:50:00,48.4,8.0,17.72,West,259,5.8,10.1,19,0.00,,CLR,0.00,VWS V14.01,2013-01-08 10:50:00,
2013-01-08 03:51:00,48.6,8.2,17.72,West,265,7.6,7.6,19,0.00,,CLR,0.00,VWS V14.01,2013-01-08 10:51:00,
2013-01-08 03:52:00,48.7,8.3,17.72,West,267,5.4,7.6,19,0.00,,CLR,0.00,VWS V14.01,2013-01-08 10:52:00,
2013-01-08 03:53:00,48.7,8.3,17.72,WSW,248,8.7,8.7,19,0.00,,CLR,0.00,VWS V14.01,2013-01-08 10:53:00,
2013-01-08 03:54:00,48.7,8.3,17.72,West,262,5.8,8.7,19,0.00,,CLR,0.00,VWS V14.01,2013-01-08 10:54:00,
2013-01-08 03:55:00,48.7,8.3,17.72,West,259,7.6,7.6,19,0.00,,CLR,0.00,VWS V14.01,2013-01-08 10:55:00,
2013-01-08 03:56:00,48.7,8.3,17.72,WSW,258,4.5,7.6,19,0.00,,CLR,0.00,VWS V14.01,2013-01-08 10:56:00,
2013-01-08 03:57:00,48.7,8.3,17.72,WSW,256,5.4,5.4,19,0.00,,CLR,0.00,VWS V14.01,2013-01-08 10:57:00,
2013-01-08 03:58:00,48.7,8.3,17.72,West,259,4.0,4.0,19,0.00,,CLR,0.00,VWS V14.01,2013-01-08 10:58:00,
2013-01-08 03:59:00,48.7,8.3,17.72,West,259,4.0,4.0,19,0.00,,CLR,0.00,VWS V14.01,2013-01-08 10:59:00,
2013-01-08 04:00:00,48.7,8.3,17.72,West,268,5.4,5.4,19,0.00,,CLR,0.00,VWS V14.01,2013-01-08 11:00:00,
2013-01-08 04:01:00,48.6,10.4,17.72,West,264,4.9,5.4,21,0.00,,CLR,0.00,VWS V14.01,2013-01-08 11:01:00,
2013-01-08 04:02:00,48.6,10.4,17.72,West,260,4.0,4.9,21,0.00,,CLR,0.00,VWS V14.01,2013-01-08 11:02:00,
2013-01-08 04:03:00,48.4,10.3,17.72,West,268,5.8,5.8,21,0.00,,CLR,0.00,VWS V14.01,2013-01-08 11:03:00,
2013-01-08 04:04:00,48.4,10.3,17.72,West,268,5.8,5.8,21,0.00,,CLR,0.00,VWS V14.01,2013-01-08 11:04:00,
2013-01-08 04:05:00,48.2,10.1,17.72,WSW,257,3.1,5.8,21,0.00,,CLR,0.00,VWS V14.01,2013-01-08 11:05:00,
2013-01-08 04:06:00,48.2,10.1,17.72,WSW,253,3.1,5.4,21,0.00,,CLR,0.00,VWS V14.01,2013-01-08 11:06:00,
2013-01-08 04:07:00,48.2,10.1,17.72,West,263,3.6,3.6,21,0.00,,CLR,0.00,VWS V14.01,2013-01-08 11:07:00,
2013-01-08 04:08:00,48.0,11.0,17.72,WSW,257,4.9,4.9,22,0.00,,CLR,0.00,VWS V14.01,2013-01-08 11:08:00,
2013-01-08 04:09:00,47.8,10.9,17.72,WSW,253,4.0,4.0,22,0.00,,CLR,0.00,VWS V14.01,2013-01-08 11:09:00,
2013-01-08 04:10:00,47.8,10.9,17.72,WSW,253,4.0,4.0,22,0.00,,CLR,0.00,VWS V14.01,2013-01-08 11:10:00,
2013-01-08 04:11:00,47.8,10.9,17.72,SW,224,4.0,4.0,22,0.00,,CLR,0.00,VWS V14.01,2013-01-08 11:11:00,
2013-01-08 04:12:00,47.7,10.7,17.72,WSW,242,5.4,5.4,22,0.00,,CLR,0.00,VWS V14.01,2013-01-08 11:12:00,
2013-01-08 04:13:00,47.7,10.7,17.72,WSW,238,3.1,5.8,22,0.00,,CLR,0.00,VWS V14.01,2013-01-08 11:13:00,
2013-01-08 04:14:00,47.5,10.6,17.72,WSW,239,3.1,4.0,22,0.00,,CLR,0.00,VWS V14.01,2013-01-08 11:14:00,
2013-01-08 04:15:00,47.5,10.6,17.72,WSW,239,3.1,4.0,22,0.00,,CLR,0.00,VWS V14.01,2013-01-08 11:15:00,
2013-01-08 04:16:00,47.5,10.6,17.72,West,277,5.4,6.3,22,0.00,,CLR,0.00,VWS V14.01,2013-01-08 11:16:00,
2013-01-08 04:17:00,47.3,10.4,17.72,West,277,5.4,5.4,22,0.00,,CLR,0.00,VWS V14.01,2013-01-08 11:17:00,
2013-01-08 04:18:00,47.3,10.4,17.72,West,268,7.6,7.6,22,0.00,,CLR,0.00,VWS V14.01,2013-01-08 11:18:00,
2013-01-08 04:19:00,47.1,10.2,17.72,West,271,3.6,6.3,22,0.00,,CLR,0.00,VWS V14.01,2013-01-08 11:19:00,
2013-01-08 04:20:00,47.1,10.2,17.72,West,271,3.6,6.3,22,0.00,,CLR,0.00,VWS V14.01,2013-01-08 11:20:00,
2013-01-08 04:21:00,47.1,10.2,17.72,West,272,4.0,4.0,22,0.00,,CLR,0.00,VWS V14.01,2013-01-08 11:21:00,
2013-01-08 04:22:00,46.9,10.1,17.72,West,265,5.4,6.3,22,0.00,,CLR,0.00,VWS V14.01,2013-01-08 11:22:00,
2013-01-08 04:23:00,46.9,10.1,17.72,West,276,5.8,5.8,22,0.00,,CLR,0.00,VWS V14.01,2013-01-08 11:23:00,
2013-01-08 04:24:00,46.9,10.1,17.72,SW,232,4.9,5.8,22,0.00,,CLR,0.00,VWS V14.01,2013-01-08 11:24:00,
2013-01-08 04:25:00,46.8,9.9,17.72,WSW,258,3.1,4.9,22,0.00,,CLR,0.00,VWS V14.01,2013-01-08 11:25:00,
2013-01-08 04:26:00,46.8,9.9,17.72,WSW,237,3.6,4.0,22,0.00,,CLR,0.00,VWS V14.01,2013-01-08 11:26:00,
2013-01-08 04:27:00,46.8,9.9,17.72,WSW,251,2.7,3.6,22,0.00,,CLR,0.00,VWS V14.01,2013-01-08 11:27:00,
2013-01-08 04:28:00,46.6,9.8,17.72,WSW,251,2.7,3.6,22,0.00,,CLR,0.00,VWS V14.01,2013-01-08 11:28:00,
2013-01-08 04:29:00,46.6,9.8,17.72,WSW,237,4.0,4.0,22,0.00,,CLR,0.00,VWS V14.01,2013-01-08 11:29:00,
2013-01-08 04:30:00,46.6,9.8,17.72,SW,235,4.0,4.0,22,0.00,,CLR,0.00,VWS V14.01,2013-01-08 11:30:00,
2013-01-08 04:31:00,46.6,9.8,17.72,SW,235,4.0,4.0,22,0.00,,CLR,0.00,VWS V14.01,2013-01-08 11:31:00,
2013-01-08 04:32:00,46.4,9.6,17.72,SW,235,3.1,4.0,22,0.00,,CLR,0.00,VWS V14.01,2013-01-08 11:32:00,
2013-01-08 04:33:00,46.4,9.6,17.72,SW,222,0.0,3.1,22,0.00,,CLR,0.00,VWS V14.01,2013-01-08 11:33:00,
2013-01-08 04:34:00,46.2,9.5,17.72,WSW,238,3.6,4.9,22,0.00,,CLR,0.00,VWS V14.01,2013-01-08 11:34:00,
2013-01-08 04:35:00,46.2,9.5,17.72,WSW,237,3.6,4.0,22,0.00,,CLR,0.00,VWS V14.01,2013-01-08 11:35:00,
2013-01-08 04:36:00,46.2,9.5,17.72,WSW,238,5.4,5.4,22,0.00,,CLR,0.00,VWS V14.01,2013-01-08 11:36:00,
2013-01-08 04:37:00,46.2,9.5,17.72,SW,231,4.0,5.4,22,0.00,,CLR,0.00,VWS V14.01,2013-01-08 11:37:00,
2013-01-08 04:38:00,46.0,9.3,17.72,SW,227,2.7,4.0,22,0.00,,CLR,0.00,VWS V14.01,2013-01-08 11:38:00,
2013-01-08 04:39:00,46.0,9.3,17.72,SW,228,3.6,3.6,22,0.00,,CLR,0.00,VWS V14.01,2013-01-08 11:39:00,
2013-01-08 04:40:00,46.0,9.3,17.72,WSW,238,5.4,5.8,22,0.00,,CLR,0.00,VWS V14.01,2013-01-08 11:40:00,
2013-01-08 04:41:00,46.0,9.3,17.72,WSW,238,5.4,5.4,22,0.00,,CLR,0.00,VWS V14.01,2013-01-08 11:41:00,
2013-01-08 04:42:00,46.0,9.3,17.72,WSW,250,6.3,6.3,22,0.00,,CLR,0.00,VWS V14.01,2013-01-08 11:42:00,
2013-01-08 04:43:00,46.0,9.3,17.72,WSW,258,5.4,6.3,22,0.00,,CLR,0.00,VWS V14.01,2013-01-08 11:43:00,
2013-01-08 04:44:00,46.0,12.2,17.72,SW,235,5.4,5.4,25,0.00,,CLR,0.00,VWS V14.01,2013-01-08 11:44:00,
2013-01-08 04:45:00,45.9,12.1,17.72,SW,222,3.1,5.4,25,0.00,,CLR,0.00,VWS V14.01,2013-01-08 11:45:00,
2013-01-08 04:46:00,45.9,12.1,17.72,SW,234,4.9,4.9,25,0.00,,CLR,0.00,VWS V14.01,2013-01-08 11:46:00,
2013-01-08 04:47:00,45.9,12.0,17.72,SW,221,3.6,4.9,25,0.00,,CLR,0.00,VWS V14.01,2013-01-08 11:47:00,
2013-01-08 04:48:00,45.9,12.1,17.72,SW,221,3.6,4.9,25,0.00,,CLR,0.00,VWS V14.01,2013-01-08 11:48:00,
2013-01-08 04:49:00,46.0,12.2,17.72,WSW,246,5.8,5.8,25,0.00,,CLR,0.00,VWS V14.01,2013-01-08 11:49:00,
2013-01-08 04:50:00,46.0,12.2,17.72,SW,220,4.9,5.8,25,0.00,,CLR,0.00,VWS V14.01,2013-01-08 11:50:00,
2013-01-08 04:51:00,46.0,12.2,17.72,SW,217,5.8,5.8,25,0.00,,CLR,0.00,VWS V14.01,2013-01-08 11:51:00,
2013-01-08 04:52:00,46.0,12.2,17.72,SW,219,3.1,5.8,25,0.00,,CLR,0.00,VWS V14.01,2013-01-08 11:52:00,
2013-01-08 04:53:00,46.0,12.2,17.72,SW,228,0.0,2.7,25,0.00,,CLR,0.00,VWS V14.01,2013-01-08 11:53:00,
2013-01-08 04:54:00,46.0,12.2,17.72,SW,228,0.0,2.7,25,0.00,,CLR,0.00,VWS V14.01,2013-01-08 11:54:00,
2013-01-08 04:55:00,46.2,12.4,17.72,SW,227,0.0,0.0,25,0.00,,CLR,0.00,VWS V14.01,2013-01-08 11:55:00,
2013-01-08 04:56:00,46.2,12.4,17.72,SW,224,0.0,3.6,25,0.00,,CLR,0.00,VWS V14.01,2013-01-08 11:56:00,
2013-01-08 04:57:00,46.2,12.4,17.72,SW,224,0.0,0.0,25,0.00,,CLR,0.00,VWS V14.01,2013-01-08 11:57:00,
2013-01-08 04:58:00,46.2,12.4,17.72,SSW,208,0.0,0.0,25,0.00,,CLR,0.00,VWS V14.01,2013-01-08 11:58:00,
2013-01-08 05:00:00,46.2,12.4,17.72,SSW,194,2.7,3.1,25,0.00,,CLR,0.00,VWS V14.01,2013-01-08 12:00:00,
2013-01-08 05:01:00,46.2,12.4,17.72,SSW,193,2.7,2.7,25,0.00,,CLR,0.00,VWS V14.01,2013-01-08 12:01:00,
2013-01-08 05:02:00,46.2,9.5,17.72,SSW,195,2.7,2.7,22,0.00,,CLR,0.00,VWS V14.01,2013-01-08 12:02:00,
2013-01-08 05:03:00,46.2,9.5,17.72,South,188,3.6,3.6,22,0.00,,CLR,0.00,VWS V14.01,2013-01-08 12:03:00,
2013-01-08 05:04:00,46.2,9.5,17.72,SW,221,4.0,5.8,22,0.00,,CLR,0.00,VWS V14.01,2013-01-08 12:04:00,
2013-01-08 05:05:00,46.2,9.5,17.72,SW,221,4.0,4.0,22,0.00,,CLR,0.00,VWS V14.01,2013-01-08 12:05:00,
2013-01-08 05:06:00,46.4,9.6,17.72,WSW,255,4.9,4.9,22,0.00,,CLR,0.00,VWS V14.01,2013-01-08 12:06:00,
2013-01-08 05:07:00,46.4,9.6,17.72,WSW,241,4.0,5.4,22,0.00,,CLR,0.00,VWS V14.01,2013-01-08 12:07:00,
2013-01-08 05:08:00,46.4,9.6,17.72,WSW,239,3.1,4.0,22,0.00,,CLR,0.00,VWS V14.01,2013-01-08 12:08:00,
2013-01-08 05:09:00,46.6,9.8,17.72,SW,226,6.3,6.3,22,0.00,,CLR,0.00,VWS V14.01,2013-01-08 12:09:00,
2013-01-08 05:10:00,46.6,9.8,17.72,SW,226,6.3,6.3,22,0.00,,CLR,0.00,VWS V14.01,2013-01-08 12:10:00,
2013-01-08 05:11:00,46.6,9.8,17.72,SW,222,4.9,6.3,22,0.00,,CLR,0.00,VWS V14.01,2013-01-08 12:11:00,
2013-01-08 05:12:00,46.8,9.9,17.72,SW,228,4.9,4.9,22,0.00,,CLR,0.00,VWS V14.01,2013-01-08 12:12:00,
2013-01-08 05:13:00,46.8,9.9,17.72,SW,221,4.5,4.9,22,0.00,,CLR,0.00,VWS V14.01,2013-01-08 12:13:00,
2013-01-08 05:14:00,46.9,10.1,17.72,SW,221,3.1,4.5,22,0.00,,CLR,0.00,VWS V14.01,2013-01-08 12:14:00,
2013-01-08 05:15:00,46.9,10.1,17.72,SW,229,4.0,4.0,22,0.00,,CLR,0.00,VWS V14.01,2013-01-08 12:15:00,
2013-01-08 05:16:00,46.9,10.1,17.72,SW,222,4.0,4.0,22,0.00,,CLR,0.00,VWS V14.01,2013-01-08 12:16:00,
2013-01-08 05:17:00,46.9,10.1,17.72,WSW,237,5.4,5.4,22,0.00,,CLR,0.00,VWS V14.01,2013-01-08 12:17:00,
2013-01-08 05:18:00,46.8,9.9,17.72,WSW,241,3.1,5.4,22,0.00,,CLR,0.00,VWS V14.01,2013-01-08 12:18:00,
2013-01-08 05:19:00,46.8,9.9,17.72,SW,226,5.4,5.4,22,0.00,,CLR,0.00,VWS V14.01,2013-01-08 12:19:00,
2013-01-08 05:20:00,46.8,9.9,17.72,SW,233,4.9,5.4,22,0.00,,CLR,0.00,VWS V14.01,2013-01-08 12:20:00,
2013-01-08 05:21:00,46.8,9.9,17.72,West,266,4.9,5.4,22,0.00,,CLR,0.00,VWS V14.01,2013-01-08 12:21:00,
2013-01-08 05:22:00,46.8,9.9,17.72,WSW,239,2.7,4.9,22,0.00,,CLR,0.00,VWS V14.01,2013-01-08 12:22:00,
2013-01-08 05:23:00,46.8,9.9,17.72,WSW,240,2.7,2.7,22,0.00,,CLR,0.00,VWS V14.01,2013-01-08 12:23:00,
2013-01-08 05:24:00,46.6,9.8,17.72,WSW,237,0.0,3.6,22,0.00,,CLR,0.00,VWS V14.01,2013-01-08 12:24:00,
2013-01-08 05:25:00,46.6,9.8,17.72,WSW,238,3.6,3.6,22,0.00,,CLR,0.00,VWS V14.01,2013-01-08 12:25:00,
2013-01-08 05:26:00,46.6,9.8,17.72,West,263,3.1,3.6,22,0.00,,CLR,0.00,VWS V14.01,2013-01-08 12:26:00,
2013-01-08 05:27:00,46.6,9.8,17.72,West,263,3.1,3.6,22,0.00,,CLR,0.00,VWS V14.01,2013-01-08 12:27:00,
2013-01-08 05:28:00,46.6,9.8,17.72,West,262,3.6,3.6,22,0.00,,CLR,0.00,VWS V14.01,2013-01-08 12:28:00,
2013-01-08 05:29:00,46.6,9.8,17.72,West,260,3.6,3.6,22,0.00,,CLR,0.00,VWS V14.01,2013-01-08 12:29:00,
2013-01-08 05:30:00,46.4,9.6,17.72,West,261,2.7,6.3,22,0.00,,CLR,0.00,VWS V14.01,2013-01-08 12:30:00,
2013-01-08 05:31:00,46.4,9.6,17.72,West,263,4.0,4.0,22,0.00,,CLR,0.00,VWS V14.01,2013-01-08 12:31:00,
2013-01-08 05:32:00,46.4,9.6,17.72,WSW,255,5.4,5.4,22,0.00,,CLR,0.00,VWS V14.01,2013-01-08 12:32:00,
2013-01-08 05:33:00,46.4,9.6,17.72,WSW,251,3.1,5.4,22,0.00,,CLR,0.00,VWS V14.01,2013-01-08 12:33:00,
2013-01-08 05:34:00,46.4,9.6,17.72,WSW,251,3.1,3.1,22,0.00,,CLR,0.00,VWS V14.01,2013-01-08 12:34:00,
2013-01-08 05:35:00,46.4,9.6,17.72,WSW,253,3.6,3.6,22,0.00,,CLR,0.00,VWS V14.01,2013-01-08 12:35:00,
2013-01-08 05:36:00,46.4,9.6,17.72,WSW,239,5.4,5.4,22,0.00,,CLR,0.00,VWS V14.01,2013-01-08 12:36:00,
2013-01-08 05:37:00,46.4,9.6,17.72,WSW,237,6.3,6.3,22,0.00,,CLR,0.00,VWS V14.01,2013-01-08 12:37:00,
2013-01-08 05:38:00,46.4,9.6,17.72,SW,230,4.0,6.3,22,0.00,,CLR,0.00,VWS V14.01,2013-01-08 12:38:00,
2013-01-08 05:39:00,46.2,9.5,17.72,SW,228,5.8,5.8,22,0.00,,CLR,0.00,VWS V14.01,2013-01-08 12:39:00,
2013-01-08 05:40:00,46.2,9.5,17.72,WSW,240,5.8,6.3,22,0.00,,CLR,0.00,VWS V14.01,2013-01-08 12:40:00,
2013-01-08 05:41:00,46.2,9.5,17.72,SW,231,4.5,5.8,22,0.00,,CLR,0.00,VWS V14.01,2013-01-08 12:41:00,
2013-01-08 05:42:00,46.2,9.5,17.72,WSW,246,5.4,5.4,22,0.00,,CLR,0.00,VWS V14.01,2013-01-08 12:42:00,
2013-01-08 05:43:00,46.2,9.5,17.72,WSW,244,4.0,4.0,22,0.00,,CLR,0.00,VWS V14.01,2013-01-08 12:43:00,
2013-01-08 05:44:00,46.2,9.5,17.72,WSW,244,4.0,4.0,22,0.00,,CLR,0.00,VWS V14.01,2013-01-08 12:44:00,
2013-01-08 05:45:00,46.2,9.5,17.72,WSW,248,3.1,4.0,22,0.00,,CLR,0.00,VWS V14.01,2013-01-08 12:45:00,
2013-01-08 05:46:00,46.2,9.5,17.72,SW,227,3.6,4.0,22,0.00,,CLR,0.00,VWS V14.01,2013-01-08 12:46:00,
2013-01-08 05:47:00,46.2,9.5,17.72,WSW,238,4.9,4.9,22,0.00,,CLR,0.00,VWS V14.01,2013-01-08 12:47:00,
2013-01-08 05:48:00,46.2,9.5,17.72,SW,229,3.1,3.1,22,0.00,,CLR,0.00,VWS V14.01,2013-01-08 12:48:00,
2013-01-08 05:49:00,46.2,9.5,17.72,SW,229,3.1,3.1,22,0.00,,CLR,0.00,VWS V14.01,2013-01-08 12:49:00,
2013-01-08 05:50:00,46.2,9.5,17.72,SW,229,0.0,3.1,22,0.00,,CLR,0.00,VWS V14.01,2013-01-08 12:50:00,
2013-01-08 05:51:00,46.2,9.5,17.72,SW,220,4.0,4.0,22,0.00,,CLR,0.00,VWS V14.01,2013-01-08 12:51:00,
2013-01-08 05:52:00,46.2,9.5,17.72,SW,217,3.6,4.0,22,0.00,,CLR,0.00,VWS V14.01,2013-01-08 12:52:00,
2013-01-08 05:53:00,46.2,9.5,17.72,SW,226,2.7,2.7,22,0.00,,CLR,0.00,VWS V14.01,2013-01-08 12:53:00,
2013-01-08 05:54:00,46.2,9.5,17.72,SW,226,2.7,2.7,22,0.00,,CLR,0.00,VWS V14.01,2013-01-08 12:54:00,
2013-01-08 05:55:00,46.2,9.5,17.72,SW,226,2.7,2.7,22,0.00,,CLR,0.00,VWS V14.01,2013-01-08 12:55:00,
2013-01-08 05:56:00,46.2,9.5,17.72,SW,226,2.7,2.7,22,0.00,,CLR,0.00,VWS V14.01,2013-01-08 12:56:00,
2013-01-08 05:57:00,46.4,9.6,17.72,SW,228,0.0,2.7,22,0.00,,CLR,0.00,VWS V14.01,2013-01-08 12:57:00,
2013-01-08 05:58:00,46.4,9.6,17.72,SSW,212,2.7,2.7,22,0.00,,CLR,0.00,VWS V14.01,2013-01-08 12:58:00,
2013-01-08 05:59:00,46.4,9.6,17.72,SW,218,3.1,3.1,22,0.00,,CLR,0.00,VWS V14.01,2013-01-08 12:59:00,
2013-01-08 06:00:00,46.4,9.6,17.72,SW,216,0.0,3.1,22,0.00,,CLR,0.00,VWS V14.01,2013-01-08 13:00:00,
2013-01-08 06:01:00,46.4,9.6,17.72,SW,216,0.0,0.0,22,0.00,,CLR,0.00,VWS V14.01,2013-01-08 13:01:00,
2013-01-08 06:02:00,46.4,9.6,17.72,SSW,213,2.7,2.7,22,0.00,,CLR,0.00,VWS V14.01,2013-01-08 13:02:00,
2013-01-08 06:03:00,46.4,9.6,17.72,SSW,213,2.7,2.7,22,0.00,,CLR,0.00,VWS V14.01,2013-01-08 13:03:00,
2013-01-08 06:04:00,46.4,9.6,17.72,SSW,198,0.0,0.0,22,0.00,,CLR,0.00,VWS V14.01,2013-01-08 13:04:00,
2013-01-08 06:05:00,46.4,9.6,17.72,SSW,198,0.0,0.0,22,0.00,,CLR,0.00,VWS V14.01,2013-01-08 13:05:00,
2013-01-08 06:06:00,46.4,9.6,17.72,SSW,198,0.0,0.0,22,0.00,,CLR,0.00,VWS V14.01,2013-01-08 13:06:00,
2013-01-08 06:07:00,46.4,9.6,17.72,SSW,198,2.7,3.6,22,0.00,,CLR,0.00,VWS V14.01,2013-01-08 13:07:00,
2013-01-08 06:08:00,46.4,9.6,17.72,SSW,202,2.2,2.7,22,0.00,,CLR,0.00,VWS V14.01,2013-01-08 13:08:00,
2013-01-08 06:09:00,46.4,9.6,17.72,SW,231,2.7,2.7,22,0.00,,CLR,0.00,VWS V14.01,2013-01-08 13:09:00,
2013-01-08 06:10:00,46.4,9.6,17.72,SW,231,0.0,2.7,22,0.00,,CLR,0.00,VWS V14.01,2013-01-08 13:10:00,
2013-01-08 06:11:00,46.4,9.6,17.72,SW,232,0.0,0.0,22,0.00,,CLR,0.00,VWS V14.01,2013-01-08 13:11:00,
2013-01-08 06:12:00,46.2,9.5,17.72,SW,231,0.0,0.0,22,0.00,,CLR,0.00,VWS V14.01,2013-01-08 13:12:00,
2013-01-08 06:13:00,46.2,9.5,17.72,WSW,254,3.1,3.6,22,0.00,,CLR,0.00,VWS V14.01,2013-01-08 13:13:00,
2013-01-08 06:14:00,46.2,9.5,17.72,WSW,254,3.1,3.1,22,0.00,,CLR,0.00,VWS V14.01,2013-01-08 13:14:00,
2013-01-08 06:15:00,46.2,9.5,17.72,WSW,254,5.4,5.4,22,0.00,,CLR,0.00,VWS V14.01,2013-01-08 13:15:00,
2013-01-08 06:16:00,46.2,9.5,17.72,WSW,254,5.4,5.4,22,0.00,,CLR,0.00,VWS V14.01,2013-01-08 13:16:00,
2013-01-08 06:17:00,46.2,9.5,17.72,WSW,243,5.8,5.8,22,0.00,,CLR,0.00,VWS V14.01,2013-01-08 13:17:00,
2013-01-08 06:18:00,46.2,9.5,17.72,West,270,5.4,5.8,22,0.00,,CLR,0.00,VWS V14.01,2013-01-08 13:18:00,
2013-01-08 06:19:00,46.2,9.5,17.72,West,270,5.4,5.4,22,0.00,,CLR,0.00,VWS V14.01,2013-01-08 13:19:00,
2013-01-08 06:20:00,46.2,9.5,17.72,WSW,257,5.8,6.3,22,0.00,,CLR,0.00,VWS V14.01,2013-01-08 13:20:00,
2013-01-08 06:21:00,46.2,9.5,17.72,WSW,257,5.8,6.3,22,0.00,,CLR,0.00,VWS V14.01,2013-01-08 13:21:00,
2013-01-08 06:22:00,46.2,9.5,17.72,West,270,6.3,6.3,22,0.00,,CLR,0.00,VWS V14.01,2013-01-08 13:22:00,
2013-01-08 06:23:00,46.8,6.7,17.72,West,281,5.8,7.6,19,0.00,,CLR,0.00,VWS V14.01,2013-01-08 13:23:00,
2013-01-08 06:24:00,46.9,6.8,17.72,West,264,7.6,7.6,19,0.00,,CLR,0.00,VWS V14.01,2013-01-08 13:24:00,
2013-01-08 06:25:00,46.9,6.8,17.72,West,263,8.3,8.3,19,0.00,,CLR,0.00,VWS V14.01,2013-01-08 13:25:00,
2013-01-08 06:26:00,46.9,6.8,17.72,West,263,8.3,8.3,19,0.00,,CLR,0.00,VWS V14.01,2013-01-08 13:26:00,
2013-01-08 06:27:00,46.9,6.8,17.72,West,263,8.3,8.3,19,0.00,,CLR,0.00,VWS V14.01,2013-01-08 13:27:00,
2013-01-08 06:28:00,47.5,7.3,17.72,West,281,8.1,8.3,19,0.00,,CLR,0.00,VWS V14.01,2013-01-08 13:28:00,
2013-01-08 06:29:00,47.7,7.4,17.72,West,260,4.9,8.7,19,0.00,,CLR,0.00,VWS V14.01,2013-01-08 13:29:00,
2013-01-08 06:30:00,47.8,7.6,17.72,WNW,285,5.4,5.4,19,0.00,,CLR,0.00,VWS V14.01,2013-01-08 13:30:00,
2013-01-08 06:31:00,48.0,7.7,17.72,West,276,5.4,8.3,19,0.00,,CLR,0.00,VWS V14.01,2013-01-08 13:31:00,
2013-01-08 06:32:00,48.2,7.9,17.72,WNW,283,4.0,5.4,19,0.00,,CLR,0.00,VWS V14.01,2013-01-08 13:32:00,
2013-01-08 06:33:00,48.2,7.9,17.72,West,266,5.4,6.3,19,0.00,,CLR,0.00,VWS V14.01,2013-01-08 13:33:00,
2013-01-08 06:34:00,48.4,8.0,17.72,WSW,250,3.6,5.8,19,0.00,,CLR,0.00,VWS V14.01,2013-01-08 13:34:00,
2013-01-08 06:35:00,48.6,8.2,17.72,WSW,250,3.6,3.6,19,0.00,,CLR,0.00,VWS V14.01,2013-01-08 13:35:00,
2013-01-08 06:36:00,48.6,8.2,17.72,WSW,247,7.2,7.2,19,0.00,,CLR,0.00,VWS V14.01,2013-01-08 13:36:00,
2013-01-08 06:37:00,48.6,8.2,17.72,WSW,247,7.2,7.2,19,0.00,,CLR,0.00,VWS V14.01,2013-01-08 13:37:00,
2013-01-08 06:38:00,48.7,8.3,17.72,SW,233,5.4,7.2,19,0.00,,CLR,0.00,VWS V14.01,2013-01-08 13:38:00,
2013-01-08 06:39:00,48.7,8.3,17.72,WSW,252,5.8,5.8,19,0.00,,CLR,0.00,VWS V14.01,2013-01-08 13:39:00,
2013-01-08 06:40:00,48.7,8.3,17.72,WSW,242,6.3,6.3,19,0.00,,CLR,0.00,VWS V14.01,2013-01-08 13:40:00,
2013-01-08 06:41:00,48.7,8.3,17.72,WSW,240,7.6,8.7,19,0.00,,CLR,0.00,VWS V14.01,2013-01-08 13:41:00,
2013-01-08 06:42:00,48.7,8.3,17.72,West,259,5.4,7.6,19,0.00,,CLR,0.00,VWS V14.01,2013-01-08 13:42:00,
2013-01-08 06:43:00,48.7,8.3,17.72,West,259,5.4,5.4,19,0.00,,CLR,0.00,VWS V14.01,2013-01-08 13:43:00,
2013-01-08 06:44:00,48.7,8.3,17.72,NW,304,5.8,5.8,19,0.00,,CLR,0.00,VWS V14.01,2013-01-08 13:44:00,
2013-01-08 06:45:00,48.7,8.3,17.72,West,259,6.3,7.6,19,0.00,,CLR,0.00,VWS V14.01,2013-01-08 13:45:00,
2013-01-08 06:46:00,48.7,8.3,17.72,West,273,7.6,7.6,19,0.00,,CLR,0.00,VWS V14.01,2013-01-08 13:46:00,
2013-01-08 06:47:00,49.1,8.6,17.72,WSW,256,5.4,7.6,19,0.00,,CLR,0.00,VWS V14.01,2013-01-08 13:47:00,
2013-01-08 06:48:00,49.3,8.8,17.72,WSW,255,2.7,5.4,19,0.00,,CLR,0.00,VWS V14.01,2013-01-08 13:48:00,
2013-01-08 06:49:00,49.5,8.9,17.72,WSW,253,3.6,7.6,19,0.00,,CLR,0.00,VWS V14.01,2013-01-08 13:49:00,
2013-01-08 06:50:00,49.5,8.9,17.72,WSW,255,3.6,7.6,19,0.00,,CLR,0.00,VWS V14.01,2013-01-08 13:50:00,
2013-01-08 06:51:00,49.5,8.9,17.72,WSW,254,5.8,8.7,19,0.00,,CLR,0.00,VWS V14.01,2013-01-08 13:51:00,
2013-01-08 06:52:00,49.6,9.1,17.72,WSW,252,6.3,6.3,19,0.00,,CLR,0.00,VWS V14.01,2013-01-08 13:52:00,
2013-01-08 06:53:00,49.6,9.1,17.72,West,274,8.3,9.2,19,0.00,,CLR,0.00,VWS V14.01,2013-01-08 13:53:00,
2013-01-08 06:54:00,49.6,9.1,17.72,West,274,8.3,9.2,19,0.00,,CLR,0.00,VWS V14.01,2013-01-08 13:54:00,
2013-01-08 06:55:00,49.8,9.2,17.72,WSW,251,8.1,8.3,19,0.00,,CLR,0.00,VWS V14.01,2013-01-08 13:55:00,
2013-01-08 06:56:00,49.8,9.2,17.72,WNW,290,5.8,8.1,19,0.00,,CLR,0.00,VWS V14.01,2013-01-08 13:56:00,
2013-01-08 06:57:00,49.8,9.2,17.72,WSW,255,6.3,6.3,19,0.00,,CLR,0.00,VWS V14.01,2013-01-08 13:57:00,
2013-01-08 06:58:00,49.8,9.2,17.72,West,266,5.8,6.3,19,0.00,,CLR,0.00,VWS V14.01,2013-01-08 13:58:00,
2013-01-08 06:59:00,50.0,9.4,17.72,WSW,249,5.8,5.8,19,0.00,,CLR,0.00,VWS V14.01,2013-01-08 13:59:00,
2013-01-08 07:00:00,50.0,9.4,17.72,SW,233,3.6,6.7,19,0.00,,CLR,0.00,VWS V14.01,2013-01-08 14:00:00,
2013-01-08 07:01:00,50.2,9.5,17.72,SW,233,3.6,3.6,19,0.00,,CLR,0.00,VWS V14.01,2013-01-08 14:01:00,
2013-01-08 07:02:00,50.2,9.5,17.72,West,260,4.0,4.0,19,0.00,,CLR,0.00,VWS V14.01,2013-01-08 14:02:00,
2013-01-08 07:03:00,50.2,9.5,17.72,SW,230,4.0,4.0,19,0.00,,CLR,0.00,VWS V14.01,2013-01-08 14:03:00,
2013-01-08 07:04:00,50.2,9.5,17.72,SW,230,4.0,4.0,19,0.00,,CLR,0.00,VWS V14.01,2013-01-08 14:04:00,
2013-01-08 07:05:00,50.0,9.4,17.72,SW,220,4.9,4.9,19,0.00,,CLR,0.00,VWS V14.01,2013-01-08 14:05:00,
2013-01-08 07:06:00,50.0,9.4,17.72,SW,220,4.9,4.9,19,0.00,,CLR,0.00,VWS V14.01,2013-01-08 14:06:00,
2013-01-08 07:07:00,50.0,9.4,17.72,SW,232,2.7,4.9,19,0.00,,CLR,0.00,VWS V14.01,2013-01-08 14:07:00,
2013-01-08 07:08:00,49.8,9.2,17.72,SW,232,3.1,3.1,19,0.00,,CLR,0.00,VWS V14.01,2013-01-08 14:08:00,
2013-01-08 07:09:00,49.6,9.1,17.72,WSW,247,3.6,3.6,19,0.00,,CLR,0.00,VWS V14.01,2013-01-08 14:09:00,
2013-01-08 07:10:00,49.5,8.9,17.72,SSW,204,4.0,4.0,19,0.00,,CLR,0.00,VWS V14.01,2013-01-08 14:10:00,
2013-01-08 07:11:00,49.5,8.9,17.72,SSW,204,4.0,4.0,19,0.00,,CLR,0.00,VWS V14.01,2013-01-08 14:11:00,
2013-01-08 07:12:00,49.3,8.8,17.72,West,263,2.7,4.0,19,0.00,,CLR,0.00,VWS V14.01,2013-01-08 14:12:00,
2013-01-08 07:13:00,49.1,8.6,17.72,SW,230,3.1,3.6,19,0.00,,CLR,0.00,VWS V14.01,2013-01-08 14:13:00,
2013-01-08 07:14:00,49.1,8.6,17.72,SW,228,4.0,4.0,19,0.00,,CLR,0.00,VWS V14.01,2013-01-08 14:14:00,
2013-01-08 07:15:00,48.9,8.5,17.72,SW,223,5.4,5.4,19,0.00,,CLR,0.00,VWS V14.01,2013-01-08 14:15:00,
2013-01-08 07:16:00,48.7,8.3,17.72,West,262,4.0,6.3,19,0.00,,CLR,0.00,VWS V14.01,2013-01-08 14:16:00,
2013-01-08 07:17:00,48.7,8.3,17.72,West,262,4.0,6.3,19,0.00,,CLR,0.00,VWS V14.01,2013-01-08 14:17:00,
2013-01-08 07:18:00,48.6,8.2,17.72,WSW,244,4.9,5.4,19,0.00,,CLR,0.00,VWS V14.01,2013-01-08 14:18:00,
2013-01-08 07:19:00,48.6,8.2,17.72,WSW,248,5.8,6.3,19,0.00,,CLR,0.00,VWS V14.01,2013-01-08 14:19:00,
2013-01-08 07:20:00,48.4,8.0,17.72,WSW,248,5.8,5.8,19,0.00,,CLR,0.00,VWS V14.01,2013-01-08 14:20:00,
2013-01-08 07:21:00,48.2,7.9,17.72,WSW,251,5.8,5.8,19,0.00,,CLR,0.00,VWS V14.01,2013-01-08 14:21:00,
2013-01-08 07:22:00,48.2,7.9,17.72,WSW,258,6.3,6.3,19,0.00,,CLR,0.00,VWS V14.01,2013-01-08 14:22:00,
2013-01-08 07:23:00,48.2,7.9,17.72,WSW,258,6.3,6.3,19,0.00,,CLR,0.00,VWS V14.01,2013-01-08 14:23:00,
2013-01-08 07:24:00,48.0,7.7,17.72,West,262,4.5,6.3,19,0.00,,CLR,0.00,VWS V14.01,2013-01-08 14:24:00,
2013-01-08 07:25:00,48.0,7.7,17.72,West,262,4.5,4.5,19,0.00,,CLR,0.00,VWS V14.01,2013-01-08 14:25:00,
2013-01-08 07:26:00,47.8,7.6,17.72,WSW,258,5.8,5.8,19,0.00,,CLR,0.00,VWS V14.01,2013-01-08 14:26:00,
2013-01-08 07:27:00,47.8,7.6,17.72,West,259,5.4,5.4,19,0.00,,CLR,0.00,VWS V14.01,2013-01-08 14:27:00,
2013-01-08 07:28:00,47.8,7.6,17.72,West,259,5.4,5.4,19,0.00,,CLR,0.00,VWS V14.01,2013-01-08 14:28:00,
2013-01-08 07:29:00,47.8,7.6,17.72,WSW,252,3.1,5.4,19,0.00,,CLR,0.00,VWS V14.01,2013-01-08 14:29:00,
2013-01-08 07:30:00,47.8,7.6,17.72,WSW,246,3.6,3.6,19,0.00,,CLR,0.00,VWS V14.01,2013-01-08 14:30:00,
2013-01-08 07:31:00,47.8,7.6,17.72,West,267,5.4,5.4,19,0.00,,CLR,0.00,VWS V14.01,2013-01-08 14:31:00,
2013-01-08 07:32:00,47.7,7.4,17.72,WSW,254,5.8,5.8,19,0.00,,CLR,0.00,VWS V14.01,2013-01-08 14:32:00,
2013-01-08 07:33:00,47.7,7.4,17.72,West,262,6.3,6.3,19,0.00,,CLR,0.00,VWS V14.01,2013-01-08 14:33:00,
2013-01-08 07:34:00,47.7,7.4,17.72,West,262,6.3,6.3,19,0.00,,CLR,0.00,VWS V14.01,2013-01-08 14:34:00,
2013-01-08 07:35:00,47.8,7.6,17.72,SW,230,4.0,6.3,19,0.00,,CLR,0.00,VWS V14.01,2013-01-08 14:35:00,
2013-01-08 07:36:00,47.8,7.6,17.72,SW,235,6.3,6.3,19,0.00,,CLR,0.00,VWS V14.01,2013-01-08 14:36:00,
2013-01-08 07:37:00,48.0,7.7,17.72,WSW,246,5.4,6.3,19,0.00,,CLR,0.00,VWS V14.01,2013-01-08 14:37:00,
2013-01-08 07:38:00,48.0,7.7,17.72,WSW,256,5.4,5.8,19,0.00,,CLR,0.00,VWS V14.01,2013-01-08 14:38:00,
2013-01-08 07:39:00,48.0,7.7,17.72,WSW,256,5.4,5.8,19,0.00,,CLR,0.00,VWS V14.01,2013-01-08 14:39:00,
2013-01-08 07:40:00,48.2,7.9,17.72,West,260,5.4,5.8,19,0.00,,CLR,0.00,VWS V14.01,2013-01-08 14:40:00,
2013-01-08 07:41:00,48.2,7.9,17.72,SW,229,5.8,5.8,19,0.00,,CLR,0.00,VWS V14.01,2013-01-08 14:41:00,
2013-01-08 07:42:00,48.2,7.9,17.72,SW,232,4.9,5.8,19,0.00,,CLR,0.00,VWS V14.01,2013-01-08 14:42:00,
2013-01-08 07:43:00,48.2,7.9,17.72,SW,235,4.9,5.8,19,0.00,,CLR,0.00,VWS V14.01,2013-01-08 14:43:00,
2013-01-08 07:44:00,48.2,7.9,17.72,SSW,211,6.3,6.3,19,0.00,,CLR,0.00,VWS V14.01,2013-01-08 14:44:00,
2013-01-08 07:45:00,48.2,7.9,17.72,SSW,211,6.3,6.3,19,0.00,,CLR,0.00,VWS V14.01,2013-01-08 14:45:00,
2013-01-08 07:46:00,48.2,7.9,17.72,SW,224,5.4,6.3,19,0.00,,CLR,0.00,VWS V14.01,2013-01-08 14:46:00,
2013-01-08 07:47:00,48.4,8.0,17.72,SW,233,3.6,5.4,19,0.00,,CLR,0.00,VWS V14.01,2013-01-08 14:47:00,
2013-01-08 07:48:00,48.4,8.0,17.72,SW,234,5.4,5.4,19,0.00,,CLR,0.00,VWS V14.01,2013-01-08 14:48:00,
2013-01-08 07:49:00,48.2,7.9,17.72,SW,229,5.4,5.4,19,0.00,,CLR,0.00,VWS V14.01,2013-01-08 14:49:00,
2013-01-08 07:50:00,48.2,7.9,17.72,SW,229,5.4,5.4,19,0.00,,CLR,0.00,VWS V14.01,2013-01-08 14:50:00,
2013-01-08 07:51:00,48.2,7.9,17.72,WSW,240,4.9,5.4,19,0.00,,CLR,0.00,VWS V14.01,2013-01-08 14:51:00,
2013-01-08 07:52:00,48.2,7.9,17.72,WSW,239,4.9,4.9,19,0.00,,CLR,0.00,VWS V14.01,2013-01-08 14:52:00,
2013-01-08 07:53:00,48.2,7.9,17.72,WSW,239,4.9,4.9,19,0.00,,CLR,0.00,VWS V14.01,2013-01-08 14:53:00,
2013-01-08 07:54:00,48.2,7.9,17.72,SW,235,2.7,4.9,19,0.00,,CLR,0.00,VWS V14.01,2013-01-08 14:54:00,
2013-01-08 07:55:00,48.2,7.9,17.72,WSW,247,3.6,3.6,19,0.00,,CLR,0.00,VWS V14.01,2013-01-08 14:55:00,
2013-01-08 07:56:00,48.2,7.9,17.72,West,260,3.6,5.4,19,0.00,,CLR,0.00,VWS V14.01,2013-01-08 14:56:00,
2013-01-08 07:57:00,48.2,7.9,17.72,West,259,3.6,3.6,19,0.00,,CLR,0.00,VWS V14.01,2013-01-08 14:57:00,
2013-01-08 07:58:00,48.2,7.9,17.72,SW,230,3.6,3.6,19,0.00,,CLR,0.00,VWS V14.01,2013-01-08 14:58:00,
2013-01-08 07:59:00,48.2,7.9,17.72,SW,230,3.6,3.6,19,0.00,,CLR,0.00,VWS V14.01,2013-01-08 14:59:00,
2013-01-08 08:00:00,48.4,8.0,17.72,WSW,241,3.6,4.0,19,0.00,,CLR,0.00,VWS V14.01,2013-01-08 15:00:00,
2013-01-08 08:01:00,48.4,8.0,17.72,WSW,241,3.6,4.0,19,0.00,,CLR,0.00,VWS V14.01,2013-01-08 15:01:00,
2013-01-08 08:02:00,48.4,8.0,17.72,WSW,239,0.0,3.6,19,0.00,,CLR,0.00,VWS V14.01,2013-01-08 15:02:00,
2013-01-08 08:03:00,48.4,8.0,17.72,SW,236,4.0,4.0,19,0.00,,CLR,0.00,VWS V14.01,2013-01-08 15:03:00,
2013-01-08 08:04:00,48.4,8.0,17.72,SW,235,3.1,4.0,19,0.00,,CLR,0.00,VWS V14.01,2013-01-08 15:04:00,
2013-01-08 08:05:00,48.4,8.0,17.72,SW,235,0.0,3.1,19,0.00,,CLR,0.00,VWS V14.01,2013-01-08 15:05:00,
2013-01-08 08:06:00,48.4,8.0,17.72,SW,230,3.1,3.6,19,0.00,,CLR,0.00,VWS V14.01,2013-01-08 15:06:00,
2013-01-08 08:17:00,48.6,8.2,17.72,WSW,251,2.7,2.7,19,0.00,,CLR,0.00,VWS V14.01,2013-01-08 15:17:00,
2013-01-08 08:22:00,49.1,8.6,17.72,WSW,251,0.0,0.0,19,0.00,,CLR,0.00,VWS V14.01,2013-01-08 15:22:00,
2013-01-08 08:28:00,49.5,8.9,17.72,WSW,251,0.0,0.0,19,0.00,,CLR,0.00,VWS V14.01,2013-01-08 15:28:00,
2013-01-08 08:33:00,50.0,11.6,17.72,WSW,251,3.6,3.6,21,0.00,,CLR,0.00,VWS V14.01,2013-01-08 15:33:00,
2013-01-08 08:38:00,50.4,9.7,17.72,East,86,0.0,0.0,19,0.00,,CLR,0.00,VWS V14.01,2013-01-08 15:38:00,
2013-01-08 08:43:00,50.7,10.0,17.72,East,86,0.0,0.0,19,0.00,,CLR,0.00,VWS V14.01,2013-01-08 15:43:00,
2013-01-08 08:48:00,51.4,12.8,17.72,NNE,30,3.6,3.6,21,0.00,,CLR,0.00,VWS V14.01,2013-01-08 15:48:00,
2013-01-08 08:54:00,51.8,9.7,17.72,East,85,4.0,4.0,18,0.00,,CLR,0.00,VWS V14.01,2013-01-08 15:54:00,
2013-01-08 08:59:00,52.7,10.4,17.72,East,85,3.6,3.6,18,0.00,,CLR,0.00,VWS V14.01,2013-01-08 15:59:00,
2013-01-08 09:04:00,53.1,10.7,17.72,SE,126,0.0,0.0,18,0.00,,CLR,0.00,VWS V14.01,2013-01-08 16:04:00,
2013-01-08 09:10:00,53.6,11.1,17.72,SE,127,0.0,0.0,18,0.00,,CLR,0.00,VWS V14.01,2013-01-08 16:10:00,
2013-01-08 09:15:00,54.5,14.3,17.72,SE,127,0.0,0.0,20,0.00,,CLR,0.00,VWS V14.01,2013-01-08 16:15:00,
2013-01-08 09:20:00,55.4,15.0,17.72,SE,127,0.0,0.0,20,0.00,,CLR,0.00,VWS V14.01,2013-01-08 16:20:00,
2013-01-08 09:25:00,56.3,15.8,17.72,SE,127,0.0,0.0,20,0.00,,CLR,0.00,VWS V14.01,2013-01-08 16:25:00,
2013-01-08 09:30:00,56.8,12.5,17.72,East,86,2.7,3.1,17,0.00,,CLR,0.00,VWS V14.01,2013-01-08 16:30:00,
2013-01-08 09:36:00,56.7,12.4,17.72,East,86,2.7,4.0,17,0.00,,CLR,0.00,VWS V14.01,2013-01-08 16:36:00,
2013-01-08 09:41:00,56.8,12.5,17.72,East,86,2.7,3.1,17,0.00,,CLR,0.00,VWS V14.01,2013-01-08 16:41:00,
2013-01-08 09:46:00,57.2,12.8,17.72,East,86,2.7,2.7,17,0.00,,CLR,0.00,VWS V14.01,2013-01-08 16:46:00,
2013-01-08 09:52:00,57.7,13.2,17.72,East,86,0.0,0.0,17,0.00,,CLR,0.00,VWS V14.01,2013-01-08 16:52:00,
2013-01-08 09:57:00,58.6,14.0,17.72,East,86,0.0,0.0,17,0.00,,CLR,0.00,VWS V14.01,2013-01-08 16:57:00,
2013-01-08 10:02:00,59.4,14.6,17.72,East,86,0.0,0.0,17,0.00,,CLR,0.00,VWS V14.01,2013-01-08 17:02:00,
2013-01-08 10:08:00,59.7,14.9,17.72,East,86,0.0,0.0,17,0.00,,CLR,0.00,VWS V14.01,2013-01-08 17:08:00,
2013-01-08 10:13:00,60.1,15.1,17.72,East,81,0.0,2.7,17,0.00,,CLR,0.00,VWS V14.01,2013-01-08 17:13:00,
2013-01-08 10:19:00,60.1,15.1,17.72,West,281,4.0,6.3,17,0.00,,CLR,0.00,VWS V14.01,2013-01-08 17:19:00,
2013-01-08 10:25:00,59.5,14.7,17.72,WNW,301,0.0,4.9,17,0.00,,CLR,0.00,VWS V14.01,2013-01-08 17:25:00,
2013-01-08 10:30:00,59.0,14.3,17.72,WNW,294,4.9,6.3,17,0.00,,CLR,0.00,VWS V14.01,2013-01-08 17:30:00,
2013-01-08 10:36:00,58.6,14.0,17.72,NW,311,3.6,6.7,17,0.00,,CLR,0.00,VWS V14.01,2013-01-08 17:36:00,
2013-01-08 10:41:00,59.0,14.3,17.72,WNW,287,0.0,0.0,17,0.00,,CLR,0.00,VWS V14.01,2013-01-08 17:41:00,
2013-01-08 10:46:00,59.7,14.9,17.72,NW,320,6.3,6.3,17,0.00,,CLR,0.00,VWS V14.01,2013-01-08 17:46:00,
2013-01-08 10:51:00,60.1,15.1,17.72,NNW,346,3.6,4.5,17,0.00,,CLR,0.00,VWS V14.01,2013-01-08 17:51:00,
2013-01-08 10:57:00,60.4,15.4,17.72,NNW,333,0.0,0.0,17,0.00,,CLR,0.00,VWS V14.01,2013-01-08 17:57:00,
2013-01-08 11:02:00,61.0,14.5,17.72,West,263,7.6,8.7,16,0.00,,CLR,0.00,VWS V14.01,2013-01-08 18:02:00,
2013-01-08 11:08:00,61.2,14.6,17.72,WSW,256,7.6,8.1,16,0.00,,CLR,0.00,VWS V14.01,2013-01-08 18:08:00,
2013-01-08 11:14:00,61.3,14.8,17.72,West,259,10.5,10.5,16,0.00,,CLR,0.00,VWS V14.01,2013-01-08 18:14:00,
2013-01-08 11:19:00,61.7,15.1,17.72,WNW,291,7.6,10.5,16,0.00,,CLR,0.00,VWS V14.01,2013-01-08 18:19:00,
2013-01-08 11:24:00,62.1,15.4,17.72,WNW,299,12.8,12.8,16,0.00,,CLR,0.00,VWS V14.01,2013-01-08 18:24:00,
2013-01-08 11:29:00,62.6,15.8,17.72,NW,309,14.5,14.5,16,0.00,,CLR,0.00,VWS V14.01,2013-01-08 18:29:00,
2013-01-08 11:35:00,62.6,15.8,17.72,WNW,297,8.7,10.5,16,0.00,,CLR,0.00,VWS V14.01,2013-01-08 18:35:00,
2013-01-08 11:40:00,62.6,15.8,17.72,NW,312,15.4,15.4,16,0.00,,CLR,0.00,VWS V14.01,2013-01-08 18:40:00,
2013-01-08 11:46:00,62.8,15.9,17.72,West,279,7.6,10.1,16,0.00,,CLR,0.00,VWS V14.01,2013-01-08 18:46:00,
2013-01-08 11:51:00,63.0,16.1,17.72,West,279,11.0,11.0,16,0.00,,CLR,0.00,VWS V14.01,2013-01-08 18:51:00,
2013-01-08 11:56:00,63.1,16.2,17.72,West,268,5.8,8.3,16,0.00,,CLR,0.00,VWS V14.01,2013-01-08 18:56:00,
2013-01-08 12:01:00,63.7,16.7,17.72,West,281,8.1,9.6,16,0.00,,CLR,0.00,VWS V14.01,2013-01-08 19:01:00,
2013-01-08 12:07:00,63.9,16.8,17.72,West,271,11.9,14.1,16,0.00,,CLR,0.00,VWS V14.01,2013-01-08 19:07:00,
2013-01-08 12:12:00,64.2,17.1,17.72,WNW,286,8.7,11.0,16,0.00,,CLR,0.00,VWS V14.01,2013-01-08 19:12:00,
2013-01-08 12:18:00,64.6,15.9,17.72,West,281,12.8,15.0,15,0.00,,CLR,0.00,VWS V14.01,2013-01-08 19:18:00,
2013-01-08 12:24:00,65.1,16.4,17.72,West,278,5.8,13.2,15,0.00,,CLR,0.00,VWS V14.01,2013-01-08 19:24:00,
2013-01-08 12:29:00,65.5,16.6,17.72,West,261,8.7,14.1,15,0.00,,CLR,0.00,VWS V14.01,2013-01-08 19:29:00,
2013-01-08 12:35:00,65.8,16.9,17.72,SW,216,6.3,12.3,15,0.00,,CLR,0.00,VWS V14.01,2013-01-08 19:35:00,
2013-01-08 12:40:00,66.0,17.1,17.72,WNW,298,15.0,15.0,15,0.00,,CLR,0.00,VWS V14.01,2013-01-08 19:40:00,
2013-01-08 12:45:00,66.0,17.1,17.72,WNW,284,8.7,10.5,15,0.00,,CLR,0.00,VWS V14.01,2013-01-08 19:45:00,
2013-01-08 12:51:00,66.2,17.2,17.72,WNW,293,8.1,12.8,15,0.00,,CLR,0.00,VWS V14.01,2013-01-08 19:51:00,
2013-01-08 12:57:00,66.2,17.2,17.72,WSW,257,10.1,10.1,15,0.00,,CLR,0.00,VWS V14.01,2013-01-08 19:57:00,
2013-01-08 13:02:00,66.4,17.4,17.72,West,267,7.6,11.9,15,0.00,,CLR,0.00,VWS V14.01,2013-01-08 20:02:00,
2013-01-08 13:07:00,66.7,17.6,17.72,WNW,282,12.3,12.3,15,0.00,,CLR,0.00,VWS V14.01,2013-01-08 20:07:00,
2013-01-08 13:13:00,67.3,18.1,17.72,West,277,10.5,10.5,15,0.00,,CLR,0.00,VWS V14.01,2013-01-08 20:13:00,
2013-01-08 13:18:00,67.5,18.2,17.72,West,266,10.5,13.2,15,0.00,,CLR,0.00,VWS V14.01,2013-01-08 20:18:00,
2013-01-08 13:23:00,67.6,18.4,17.72,West,274,7.6,8.3,15,0.00,,CLR,0.00,VWS V14.01,2013-01-08 20:23:00,
2013-01-08 13:28:00,68.2,18.8,17.72,West,268,10.5,13.2,15,0.00,,CLR,0.00,VWS V14.01,2013-01-08 20:28:00,
2013-01-08 13:34:00,68.2,18.8,17.72,WNW,282,8.7,10.5,15,0.00,,CLR,0.00,VWS V14.01,2013-01-08 20:34:00,
2013-01-08 13:39:00,68.4,19.0,17.72,West,281,16.3,17.4,15,0.00,,CLR,0.00,VWS V14.01,2013-01-08 20:39:00,
2013-01-08 13:45:00,68.0,18.7,17.72,NW,312,12.3,15.4,15,0.00,,CLR,0.00,VWS V14.01,2013-01-08 20:45:00,
2013-01-08 13:50:00,67.8,18.5,17.72,WNW,301,12.3,13.2,15,0.00,,CLR,0.00,VWS V14.01,2013-01-08 20:50:00,
2013-01-08 13:55:00,67.8,18.5,17.72,NW,304,8.7,11.0,15,0.00,,CLR,0.00,VWS V14.01,2013-01-08 20:55:00,
2013-01-08 14:00:00,68.0,18.7,17.72,NW,320,8.1,11.9,15,0.00,,CLR,0.00,VWS V14.01,2013-01-08 21:00:00,
2013-01-08 14:06:00,68.2,18.8,17.72,WNW,289,12.8,12.8,15,0.00,,CLR,0.00,VWS V14.01,2013-01-08 21:06:00,
2013-01-08 14:11:00,68.4,19.0,17.72,West,279,8.3,10.5,15,0.00,,CLR,0.00,VWS V14.01,2013-01-08 21:11:00,
2013-01-08 14:16:00,68.7,19.2,17.72,NW,316,9.6,13.2,15,0.00,,CLR,0.00,VWS V14.01,2013-01-08 21:16:00,
2013-01-08 14:21:00,68.9,19.4,17.72,WNW,299,11.0,12.8,15,0.00,,CLR,0.00,VWS V14.01,2013-01-08 21:21:00,
2013-01-08 14:27:00,69.1,19.5,17.72,West,268,11.0,11.0,15,0.00,,CLR,0.00,VWS V14.01,2013-01-08 21:27:00,
2013-01-08 14:32:00,69.3,19.7,17.72,West,277,11.4,13.2,15,0.00,,CLR,0.00,VWS V14.01,2013-01-08 21:32:00,
2013-01-08 14:38:00,69.3,19.7,17.72,WNW,286,13.2,13.2,15,0.00,,CLR,0.00,VWS V14.01,2013-01-08 21:38:00,
2013-01-08 14:43:00,69.6,20.0,17.72,WSW,258,7.6,8.7,15,0.00,,CLR,0.00,VWS V14.01,2013-01-08 21:43:00,
2013-01-08 14:48:00,69.8,18.5,17.72,WNW,291,13.2,13.6,14,0.00,,CLR,0.00,VWS V14.01,2013-01-08 21:48:00,
2013-01-08 14:54:00,70.0,18.6,17.72,West,263,8.3,13.2,14,0.00,,CLR,0.00,VWS V14.01,2013-01-08 21:54:00,
2013-01-08 14:59:00,70.2,18.8,17.72,West,280,6.3,15.4,14,0.00,,CLR,0.00,VWS V14.01,2013-01-08 21:59:00,
2013-01-08 15:05:00,70.2,18.8,17.72,West,268,10.5,15.0,14,0.00,,CLR,0.00,VWS V14.01,2013-01-08 22:05:00,
2013-01-08 15:10:00,70.2,18.8,17.72,WNW,298,8.3,12.3,14,0.00,,CLR,0.00,VWS V14.01,2013-01-08 22:10:00,
2013-01-08 15:16:00,70.5,19.1,17.72,WSW,258,8.7,12.8,14,0.00,,CLR,0.00,VWS V14.01,2013-01-08 22:16:00,
2013-01-08 15:21:00,70.5,19.1,17.72,West,278,8.7,13.2,14,0.00,,CLR,0.00,VWS V14.01,2013-01-08 22:21:00,
2013-01-08 15:27:00,70.3,18.9,17.72,West,267,8.7,14.5,14,0.00,,CLR,0.00,VWS V14.01,2013-01-08 22:27:00,
2013-01-08 15:33:00,70.3,18.9,17.72,West,268,11.0,12.8,14,0.00,,CLR,0.00,VWS V14.01,2013-01-08 22:33:00,
2013-01-08 15:38:00,70.5,19.1,17.72,WNW,285,8.7,11.0,14,0.00,,CLR,0.00,VWS V14.01,2013-01-08 22:38:00,
2013-01-08 15:43:00,70.9,23.9,17.72,SW,234,11.9,11.9,17,0.00,,CLR,0.00,VWS V14.01,2013-01-08 22:43:00,
2013-01-08 15:48:00,71.1,24.1,17.72,WSW,243,11.0,14.5,17,0.00,,CLR,0.00,VWS V14.01,2013-01-08 22:48:00,
2013-01-08 15:54:00,70.7,19.2,17.72,West,270,10.5,10.5,14,0.00,,CLR,0.00,VWS V14.01,2013-01-08 22:54:00,
2013-01-08 15:59:00,70.5,19.1,17.72,West,279,11.9,15.0,14,0.00,,CLR,0.00,VWS V14.01,2013-01-08 22:59:00,
2013-01-08 16:05:00,70.2,18.8,17.72,West,274,10.1,12.8,14,0.00,,CLR,0.00,VWS V14.01,2013-01-08 23:05:00,
2013-01-08 16:10:00,70.2,18.8,17.72,West,270,14.1,15.0,14,0.00,,CLR,0.00,VWS V14.01,2013-01-08 23:10:00,
2013-01-08 16:15:00,70.0,18.6,17.72,WNW,293,10.1,13.2,14,0.00,,CLR,0.00,VWS V14.01,2013-01-08 23:15:00,
2013-01-08 16:20:00,69.8,18.5,17.72,West,272,10.1,11.4,14,0.00,,CLR,0.00,VWS V14.01,2013-01-08 23:20:00,
2013-01-08 16:26:00,69.8,18.5,17.72,West,275,11.0,11.0,14,0.00,,CLR,0.00,VWS V14.01,2013-01-08 23:26:00,
2013-01-08 16:31:00,69.8,18.5,17.72,WNW,301,13.2,13.2,14,0.00,,CLR,0.00,VWS V14.01,2013-01-08 23:31:00,
2013-01-08 16:37:00,69.4,19.8,17.72,West,275,8.3,15.0,15,0.00,,CLR,0.00,VWS V14.01,2013-01-08 23:37:00,
2013-01-08 16:43:00,69.6,20.0,17.72,West,268,4.0,7.6,15,0.00,,CLR,0.00,VWS V14.01,2013-01-08 23:43:00,
2013-01-08 16:48:00,69.6,20.0,17.72,West,277,5.8,8.7,15,0.00,,CLR,0.00,VWS V14.01,2013-01-08 23:48:00,
2013-01-08 16:54:00,69.3,19.7,17.72,West,281,8.3,17.4,15,0.00,,CLR,0.00,VWS V14.01,2013-01-08 23:54:00,
2013-01-08 16:59:00,68.9,19.4,17.72,NW,311,11.0,11.4,15,0.00,,CLR,0.00,VWS V14.01,2013-01-08 23:59:00,
2013-01-08 17:04:00,68.5,19.1,17.72,WNW,284,15.0,16.3,15,0.00,,CLR,0.00,VWS V14.01,2013-01-09 00:04:00,
2013-01-08 17:11:00,67.8,18.5,17.72,WNW,299,7.6,8.7,15,0.00,,CLR,0.00,VWS V14.01,2013-01-09 00:11:00,
2013-01-08 17:16:00,67.5,18.2,17.72,West,264,11.0,12.3,15,0.00,,CLR,0.00,VWS V14.01,2013-01-09 00:16:00,
2013-01-08 17:21:00,67.3,18.1,17.72,NW,307,13.2,17.0,15,0.00,,CLR,0.00,VWS V14.01,2013-01-09 00:21:00,
2013-01-08 17:26:00,67.1,17.9,17.72,WNW,293,10.5,10.5,15,0.00,,CLR,0.00,VWS V14.01,2013-01-09 00:26:00,
2013-01-08 17:32:00,66.7,17.6,17.72,WNW,288,10.5,12.8,15,0.00,,CLR,0.00,VWS V14.01,2013-01-09 00:32:00,
2013-01-08 17:37:00,66.6,17.5,17.72,NW,324,8.7,11.0,15,0.00,,CLR,0.00,VWS V14.01,2013-01-09 00:37:00,
2013-01-08 17:43:00,66.4,17.4,17.72,WNW,295,10.5,13.2,15,0.00,,CLR,0.00,VWS V14.01,2013-01-09 00:43:00,
2013-01-08 17:48:00,66.2,17.2,17.72,NW,309,10.1,13.2,15,0.00,,CLR,0.00,VWS V14.01,2013-01-09 00:48:00,
2013-01-08 17:53:00,65.8,16.9,17.72,NW,305,10.5,10.5,15,0.00,,CLR,0.00,VWS V14.01,2013-01-09 00:53:00,
2013-01-08 18:00:00,65.7,16.8,17.72,West,273,11.9,11.9,15,0.00,,CLR,0.00,VWS V14.01,2013-01-09 01:00:00,
2013-01-08 18:05:00,65.5,16.6,17.72,West,268,7.6,8.7,15,0.00,,CLR,0.00,VWS V14.01,2013-01-09 01:05:00,
2013-01-08 18:11:00,65.1,16.4,17.72,West,266,5.4,8.1,15,0.00,,CLR,0.00,VWS V14.01,2013-01-09 01:11:00,
2013-01-08 18:16:00,64.9,16.2,17.72,West,281,5.4,5.4,15,0.00,,CLR,0.00,VWS V14.01,2013-01-09 01:16:00,
2013-01-08 18:22:00,64.4,15.8,17.72,WSW,242,3.1,3.1,15,0.00,,CLR,0.00,VWS V14.01,2013-01-09 01:22:00,
2013-01-08 18:27:00,64.2,17.1,17.72,WSW,254,6.3,6.3,16,0.00,,CLR,0.00,VWS V14.01,2013-01-09 01:27:00,
2013-01-08 18:33:00,63.9,16.8,17.72,West,264,4.5,4.5,16,0.00,,CLR,0.00,VWS V14.01,2013-01-09 01:33:00,
2013-01-08 18:38:00,63.5,16.5,17.72,WNW,293,5.8,8.1,16,0.00,,CLR,0.00,VWS V14.01,2013-01-09 01:38:00,
2013-01-08 18:44:00,63.5,16.5,17.72,West,281,5.8,6.3,16,0.00,,CLR,0.00,VWS V14.01,2013-01-09 01:44:00,
2013-01-08 18:49:00,63.3,16.4,17.72,WNW,284,5.8,5.8,16,0.00,,CLR,0.00,VWS V14.01,2013-01-09 01:49:00,
2013-01-08 18:54:00,63.3,16.4,17.72,NW,305,8.1,8.1,16,0.00,,CLR,0.00,VWS V14.01,2013-01-09 01:54:00,
2013-01-08 18:59:00,63.1,16.2,17.72,NW,314,8.1,8.1,16,0.00,,CLR,0.00,VWS V14.01,2013-01-09 01:59:00,
2013-01-08 19:04:00,63.1,16.2,17.72,NW,306,11.4,11.4,16,0.00,,CLR,0.00,VWS V14.01,2013-01-09 02:04:00,
2013-01-08 19:10:00,63.1,16.2,17.72,NW,304,7.6,7.6,16,0.00,,CLR,0.00,VWS V14.01,2013-01-09 02:10:00,
2013-01-08 19:15:00,63.3,16.4,17.72,West,278,7.6,10.1,16,0.00,,CLR,0.00,VWS V14.01,2013-01-09 02:15:00,
2013-01-08 19:22:00,63.3,16.4,17.72,West,280,8.7,8.7,16,0.00,,CLR,0.00,VWS V14.01,2013-01-09 02:22:00,
2013-01-08 19:28:00,63.1,16.2,17.72,West,270,8.1,8.1,16,0.00,,CLR,0.00,VWS V14.01,2013-01-09 02:28:00,
2013-01-08 19:33:00,63.1,16.2,17.72,West,278,5.4,7.6,16,0.00,,CLR,0.00,VWS V14.01,2013-01-09 02:33:00,
2013-01-08 19:38:00,63.0,16.1,17.72,NW,304,8.3,8.3,16,0.00,,CLR,0.00,VWS V14.01,2013-01-09 02:38:00,
2013-01-08 19:43:00,63.0,16.1,17.72,WNW,291,6.7,10.5,16,0.00,,CLR,0.00,VWS V14.01,2013-01-09 02:43:00,
2013-01-08 19:49:00,62.8,15.9,17.72,WNW,286,8.7,8.7,16,0.00,,CLR,0.00,VWS V14.01,2013-01-09 02:49:00,
2013-01-08 19:54:00,62.6,15.8,17.72,WNW,292,8.3,8.3,16,0.00,,CLR,0.00,VWS V14.01,2013-01-09 02:54:00,
2013-01-08 20:00:00,62.4,15.7,17.72,WNW,292,6.7,6.7,16,0.00,,CLR,0.00,VWS V14.01,2013-01-09 03:00:00,
2013-01-08 20:05:00,62.2,15.5,17.72,West,272,8.7,8.7,16,0.00,,CLR,0.00,VWS V14.01,2013-01-09 03:05:00,
2013-01-08 20:11:00,62.2,15.5,17.72,WNW,302,8.7,8.7,16,0.00,,CLR,0.00,VWS V14.01,2013-01-09 03:11:00,
2013-01-08 20:16:00,62.2,15.5,17.72,WNW,295,10.1,10.1,16,0.00,,CLR,0.00,VWS V14.01,2013-01-09 03:16:00,
2013-01-08 20:21:00,61.9,15.2,17.72,WNW,291,8.7,8.7,16,0.00,,CLR,0.00,VWS V14.01,2013-01-09 03:21:00,
2013-01-08 20:28:00,61.9,15.2,17.72,WNW,288,6.3,6.3,16,0.00,,CLR,0.00,VWS V14.01,2013-01-09 03:28:00,
2013-01-08 20:34:00,61.7,15.1,17.72,West,275,6.3,7.6,16,0.00,,CLR,0.00,VWS V14.01,2013-01-09 03:34:00,
2013-01-08 20:39:00,61.3,14.8,17.72,West,265,4.9,4.9,16,0.00,,CLR,0.00,VWS V14.01,2013-01-09 03:39:00,
2013-01-08 20:45:00,60.8,14.4,17.72,West,265,4.0,5.8,16,0.00,,CLR,0.00,VWS V14.01,2013-01-09 03:45:00,
2013-01-08 20:50:00,60.6,15.6,17.72,West,263,5.4,5.4,17,0.00,,CLR,0.00,VWS V14.01,2013-01-09 03:50:00,
2013-01-08 20:56:00,60.3,15.3,17.72,WSW,258,6.3,7.6,17,0.00,,CLR,0.00,VWS V14.01,2013-01-09 03:56:00,
2013-01-08 21:02:00,60.1,15.1,17.72,West,281,5.8,8.7,17,0.00,,CLR,0.00,VWS V14.01,2013-01-09 04:02:00,
2013-01-08 21:07:00,60.3,15.3,17.72,West,264,5.8,7.6,17,0.00,,CLR,0.00,VWS V14.01,2013-01-09 04:07:00,
2013-01-08 21:13:00,60.3,15.3,17.72,West,270,8.1,8.1,17,0.00,,CLR,0.00,VWS V14.01,2013-01-09 04:13:00,
2013-01-08 21:18:00,60.4,15.4,17.72,WNW,289,8.7,8.7,17,0.00,,CLR,0.00,VWS V14.01,2013-01-09 04:18:00,
2013-01-08 21:24:00,60.4,15.4,17.72,West,267,11.0,11.0,17,0.00,,CLR,0.00,VWS V14.01,2013-01-09 04:24:00,
2013-01-08 21:30:00,60.4,15.4,17.72,West,265,5.8,5.8,17,0.00,,CLR,0.00,VWS V14.01,2013-01-09 04:30:00,
2013-01-08 21:35:00,60.4,15.4,17.72,WNW,294,10.5,10.5,17,0.00,,CLR,0.00,VWS V14.01,2013-01-09 04:35:00,
2013-01-08 21:42:00,60.4,15.4,17.72,West,275,8.7,8.7,17,0.00,,CLR,0.00,VWS V14.01,2013-01-09 04:42:00,
2013-01-08 21:48:00,60.4,15.4,17.72,WNW,288,8.1,8.7,17,0.00,,CLR,0.00,VWS V14.01,2013-01-09 04:48:00,
2013-01-08 21:53:00,60.3,15.3,17.72,NW,322,0.0,4.0,17,0.00,,CLR,0.00,VWS V14.01,2013-01-09 04:53:00,
2013-01-08 21:59:00,60.1,15.1,17.72,NW,318,5.4,5.4,17,0.00,,CLR,0.00,VWS V14.01,2013-01-09 04:59:00,
2013-01-08 22:02:00,59.7,14.9,17.72,WNW,302,5.8,5.8,17,0.00,,CLR,0.00,VWS V14.01,2013-01-09 05:02:00,
2013-01-08 22:06:00,59.5,14.7,17.72,WNW,292,3.6,3.6,17,0.00,,CLR,0.00,VWS V14.01,2013-01-09 05:06:00,
2013-01-08 22:08:00,59.5,14.7,17.72,WNW,295,7.6,7.6,17,0.00,,CLR,0.00,VWS V14.01,2013-01-09 05:08:00,
2013-01-08 22:13:00,59.5,14.7,17.72,WNW,293,3.6,3.6,17,0.00,,CLR,0.00,VWS V14.01,2013-01-09 05:13:00,
2013-01-08 22:19:00,59.5,14.7,17.72,West,277,8.1,8.1,17,0.00,,CLR,0.00,VWS V14.01,2013-01-09 05:19:00,
2013-01-08 22:24:00,59.5,14.7,17.72,West,281,3.6,3.6,17,0.00,,CLR,0.00,VWS V14.01,2013-01-09 05:24:00,
2013-01-08 22:31:00,59.4,14.6,17.72,West,275,5.8,7.2,17,0.00,,CLR,0.00,VWS V14.01,2013-01-09 05:31:00,
2013-01-08 22:37:00,59.4,14.6,17.72,WNW,283,5.4,6.3,17,0.00,,CLR,0.00,VWS V14.01,2013-01-09 05:37:00,
2013-01-08 22:42:00,59.2,14.4,17.72,West,276,6.3,6.3,17,0.00,,CLR,0.00,VWS V14.01,2013-01-09 05:42:00,
2013-01-08 22:48:00,59.0,14.3,17.72,WNW,284,7.6,7.6,17,0.00,,CLR,0.00,VWS V14.01,2013-01-09 05:48:00,
2013-01-08 22:54:00,59.0,14.3,17.72,NW,309,10.1,10.1,17,0.00,,CLR,0.00,VWS V14.01,2013-01-09 05:54:00,
2013-01-08 22:59:00,59.4,14.6,17.72,NW,311,5.4,5.4,17,0.00,,CLR,0.00,VWS V14.01,2013-01-09 05:59:00,
2013-01-08 23:05:00,59.4,14.6,17.72,West,276,3.6,5.4,17,0.00,,CLR,0.00,VWS V14.01,2013-01-09 06:05:00,
2013-01-08 23:10:00,59.0,14.3,17.72,West,278,3.1,3.6,17,0.00,,CLR,0.00,VWS V14.01,2013-01-09 06:10:00,
2013-01-08 23:16:00,58.1,13.5,17.72,West,278,3.1,3.1,17,0.00,,CLR,0.00,VWS V14.01,2013-01-09 06:16:00,
2013-01-08 23:22:00,57.4,12.9,17.72,WNW,288,0.0,0.0,17,0.00,,CLR,0.00,VWS V14.01,2013-01-09 06:22:00,
2013-01-08 23:27:00,57.2,12.8,17.72,West,259,3.6,3.6,17,0.00,,CLR,0.00,VWS V14.01,2013-01-09 06:27:00,
2013-01-08 23:33:00,56.1,15.6,17.72,West,266,0.0,3.6,20,0.00,,CLR,0.00,VWS V14.01,2013-01-09 06:33:00,
2013-01-08 23:38:00,54.9,14.6,17.72,West,266,0.0,0.0,20,0.00,,CLR,0.00,VWS V14.01,2013-01-09 06:38:00,
2013-01-08 23:44:00,54.3,14.1,17.72,West,266,0.0,0.0,20,0.00,,CLR,0.00,VWS V14.01,2013-01-09 06:44:00,
2013-01-08 23:49:00,53.8,13.7,17.72,West,265,3.6,3.6,20,0.00,,CLR,0.00,VWS V14.01,2013-01-09 06:49:00,
2013-01-08 23:55:00,53.6,13.5,17.72,NE,52,3.6,3.6,20,0.00,,CLR,0.00,VWS V14.01,2013-01-09 06:55:00,